GEFSSGP_con_cape1000_018.txt.gz
Probability
0 0 0 0 94 55 3 0 0 0 0 0 0 0 0 0 0 39 100 71 29 100 100 100 100 100 97 100 100 100 100 100 100 100 100 100 100 100 100 100 100 100 100 100 100 100 100 100 100
0 0 0 0 16 0 0 0 0 0 0 0 0 0 0 0 48 97 87 45 42 100 100 100 100 100 97 97 100 100 100 100 100 100 100 100 100 100 100 100 100 100 100 100 100 100 100 100 100
0 0 0 0 0 0 0 0 0 0 0 0 0 0 0 10 45 68 55 16 35 100 100 100 100 100 97 97 100 100 100 100 100 100 100 100 100 100 97 97 97 100 100 100 100 97 100 100 97
0 0 0 0 0 0 0 0 0 0 0 0 0 0 32 94 77 32 16 6 32 100 100 100 100 100 100 97 97 100 100 100 100 100 100 100 100 100 100 100 100 100 100 100 100 97 94 94 97
0 0 0 0 0 0 0 0 0 0 0 0 0 6 90 100 81 32 23 10 29 71 97 100 100 100 100 100 97 100 100 100 100 100 100 100 100 100 100 100 100 100 100 100 100 100 100 100 100
0 0 0 0 0 0 0 0 0 0 0 0 0 10 97 100 97 61 48 23 23 58 94 100 100 100 100 100 100 94 97 100 100 100 100 100 100 100 100 100 100 100 100 97 97 100 97 100 100
0 0 0 0 0 0 0 0 0 0 0 0 0 16 97 100 100 90 90 90 68 74 90 100 100 100 100 100 100 100 100 100 100 100 100 100 100 100 100 100 100 97 97 97 97 97 97 97 97
0 0 0 0 0 0 0 0 0 0 0 0 0 10 94 100 100 100 97 97 94 97 97 100 100 100 100 100 100 100 100 100 100 100 100 100 100 100 100 100 100 100 100 100 100 100 100 100 100
0 0 0 0 0 0 0 0 0 0 0 6 42 68 97 100 100 100 100 100 100 100 100 100 100 100 100 100 100 100 100 100 100 100 100 100 97 39 97 97 100 100 100 100 100 100 100 100 100
0 0 0 0 0 0 0 0 0 0 0 29 81 90 100 100 100 100 100 100 100 100 100 100 100 100 97 94 100 100 100 100 100 100 100 100 97 97 71 97 100 100 100 100 100 100 100 100 100
0 0 0 0 0 0 0 0 0 0 13 61 77 94 97 100 100 100 100 100 100 100 94 97 97 94 90 90 87 97 94 97 100 100 100 100 100 100 100 100 100 100 100 100 100 100 100 100 100
0 0 0 0 0 0 0 0 0 19 52 87 87 94 97 100 100 100 100 97 90 77 84 81 74 74 90 81 84 81 84 94 94 97 100 100 100 100 100 100 100 100 100 100 100 100 100 100 100
0 0 0 0 0 0 0 0 0 32 58 94 97 100 100 100 100 100 100 90 94 90 84 77 74 65 71 81 74 61 81 87 84 97 94 100 100 97 100 100 100 100 97 100 100 100 100 100 100
0 0 0 0 0 0 0 0 0 19 55 81 87 90 90 90 94 94 94 94 87 84 81 74 65 58 65 77 77 74 61 84 77 84 87 94 90 94 94 100 100 100 100 97 100 100 97 90 87
0 0 0 0 0 0 0 3 6 13 35 61 61 65 61 58 61 65 77 77 68 74 74 65 48 52 61 65 65 61 58 71 90 90 87 84 84 84 90 87 100 100 100 100 100 90 87 77 68
0 0 0 0 0 0 0 6 6 10 29 42 39 39 52 42 42 42 48 52 58 61 74 71 45 55 58 61 65 48 48 61 68 68 71 61 65 74 77 84 87 97 87 87 90 74 68 55 52
0 0 0 0 0 0 0 10 10 16 32 48 48 42 45 42 39 45 45 55 58 71 71 61 52 55 58 65 68 52 61 68 58 52 52 48 48 58 61 77 81 81 68 68 48 48 52 55 55
0 0 0 3 13 6 13 16 6 6 19 29 26 29 42 39 42 48 48 35 52 55 55 55 55 61 61 52 65 55 52 48 48 48 55 55 58 58 71 74 77 55 45 55 55 35 55 42 26
0 0 0 19 16 39 39 26 13 6 6 10 6 13 19 23 26 32 19 10 16 19 32 42 32 35 48 52 35 42 39 48 55 55 42 45 58 61 74 68 68 68 29 39 10 23 6 13 10
0 0 0 48 42 48 45 19 3 0 0 0 3 6 10 10 13 10 6 0 0 3 6 3 6 6 6 10 16 13 32 35 19 29 39 19 39 68 52 84 65 48 74 52 42 42 3 0 0
0 0 0 32 74 55 61 61 32 0 0 0 0 3 3 3 3 0 0 0 0 0 0 0 0 0 0 0 0 0 6 6 6 13 13 10 13 19 48 81 90 94 68 65 87 68 32 3 0
0 0 0 16 35 32 52 3 55 10 0 0 0 0 0 0 0 0 0 0 0 0 0 0 0 0 0 0 0 0 0 0 0 0 0 0 0 3 10 26 68 87 94 94 68 42 48 35 0
0 0 0 6 0 0 0 0 52 3 0 0 0 0 0 0 0 0 0 0 0 0 0 0 0 3 0 0 0 0 0 0 0 0 0 0 0 0 0 3 23 48 81 87 94 77 68 55 13
0 0 0 0 0 0 0 0 26 23 13 0 0 0 0 0 0 0 0 0 0 0 0 0 0 0 0 0 0 0 0 0 0 0 0 0 0 0 0 0 0 3 19 42 71 74 81 84 55
0 0 0 0 0 0 0 0 42 19 3 0 0 0 0 0 0 0 0 0 0 0 0 0 0 0 0 0 0 0 0 0 0 0 0 0 0 0 0 0 0 0 0 6 13 39 58 74 81
0 0 0 0 0 0 0 0 39 6 3 0 0 0 0 0 0 0 0 0 0 0 0 0 0 0 0 0 0 0 0 0 0 0 0 0 0 0 0 0 0 0 0 0 3 10 10 29 58
0 0 0 0 0 0 0 0 0 0 0 0 0 0 0 0 0 0 0 0 0 0 0 0 0 0 0 0 0 0 0 0 0 0 0 0 0 0 0 0 0 0 0 0 0 0 0 6 13
0 0 0 0 0 0 0 0 0 0 0 0 0 0 0 0 0 0 0 0 0 0 0 0 0 0 0 0 0 0 0 0 0 0 0 0 0 0 0 0 0 0 0 0 0 0 0 0 0
0 0 0 0 0 0 0 0 0 0 0 0 0 0 0 0 0 0 0 0 0 0 0 0 0 0 0 0 0 0 0 0 0 0 0 0 0 0 0 0 0 0 0 0 0 0 0 0 0
0 0 0 0 0 0 0 0 0 0 0 0 0 0 0 0 0 0 0 0 0 0 0 0 0 0 0 0 0 0 0 0 0 0 0 0 0 0 0 0 0 0 0 0 0 0 0 0 0

GEFSSGP_con_cape1000_024.txt.gz
Probability
0 0 0 0 39 90 42 3 0 0 0 0 0 3 3 6 48 68 52 90 100 100 100 100 100 100 100 100 100 100 100 100 100 100 100 100 100 100 100 100 100 97 100 100 100 100 100 100 100
0 0 0 10 97 84 3 0 0 0 0 0 0 3 3 6 19 42 55 97 100 100 100 100 100 100 100 100 100 100 100 100 100 100 100 100 100 100 100 100 97 94 100 100 100 100 100 100 100
0 3 0 48 65 16 0 0 0 0 0 0 0 3 3 3 0 16 42 90 100 100 100 100 100 100 100 100 100 100 100 100 100 100 100 100 100 100 100 97 97 94 97 97 100 100 100 100 97
10 0 0 3 0 0 0 0 0 0 0 0 6 26 10 6 0 6 23 90 100 100 100 100 100 100 100 100 100 100 100 100 100 100 100 100 100 100 100 97 97 97 100 100 100 97 100 100 97
0 0 0 0 0 0 0 0 0 0 0 0 26 45 13 0 0 3 23 87 100 100 100 100 100 100 100 100 100 100 100 100 100 100 100 100 100 100 100 100 100 100 100 100 100 100 100 97 97
0 0 0 0 0 0 0 0 0 0 0 3 48 74 39 0 0 3 19 61 87 100 100 100 100 100 100 100 100 100 100 100 100 100 100 100 100 100 100 100 100 100 100 100 100 100 100 100 97
0 0 0 0 0 0 0 0 0 0 3 6 48 87 58 29 13 3 13 19 77 97 100 100 100 100 100 100 100 100 100 100 100 100 100 100 100 100 100 100 100 100 100 100 100 100 100 100 100
0 0 0 0 0 0 0 0 0 0 6 29 68 94 87 68 42 29 13 16 77 97 100 100 100 100 100 100 100 100 100 100 100 100 100 100 100 100 100 100 100 100 100 100 97 97 97 97 100
0 0 0 0 0 0 0 0 0 3 13 48 71 90 94 87 77 65 55 55 77 87 100 100 100 100 100 100 100 100 100 100 100 100 100 100 100 100 100 100 100 100 100 100 100 100 100 100 100
0 0 0 0 0 0 0 0 0 3 16 48 61 84 94 97 100 100 97 97 84 84 100 100 100 100 100 100 100 100 100 100 100 100 100 100 100 100 94 97 100 100 100 100 97 97 100 100 100
0 0 0 0 0 0 0 0 0 10 42 52 71 87 94 97 100 100 100 100 97 97 97 94 97 100 100 100 100 100 100 100 100 100 100 100 100 97 94 90 100 100 94 94 94 94 94 94 90
0 0 0 0 0 0 0 0 10 39 65 77 81 97 100 100 100 100 100 100 100 97 97 94 94 97 97 100 100 100 100 100 100 100 100 100 97 90 84 81 87 90 81 87 84 90 87 87 87
0 0 0 0 0 0 0 0 19 65 71 87 94 97 97 100 100 100 100 100 97 97 94 97 97 100 100 100 100 94 100 97 100 100 100 100 90 81 71 74 68 65 52 65 55 52 55 68 81
0 0 0 0 0 0 0 3 32 68 81 90 97 94 94 97 97 97 97 97 97 97 97 97 90 97 100 100 100 100 100 100 97 100 97 100 94 90 84 71 68 48 29 29 29 26 35 35 48
0 0 0 0 0 0 6 19 39 65 90 90 94 94 90 90 94 94 97 90 97 97 97 94 84 94 100 100 100 100 100 94 97 97 97 97 100 97 87 71 61 42 29 13 13 16 16 26 29
0 0 0 0 0 0 6 35 45 65 84 94 94 90 97 94 90 90 94 97 94 97 97 90 65 74 90 90 97 97 97 97 100 97 100 94 84 84 84 74 61 48 32 23 10 10 10 19 23
0 0 0 0 0 0 10 48 52 77 90 97 100 100 100 97 84 90 77 84 81 94 90 81 77 81 77 71 71 74 84 90 97 97 97 90 84 84 84 81 68 48 26 23 6 6 3 3 13
0 0 0 0 0 6 39 58 65 81 94 97 97 94 94 94 81 74 68 65 61 65 68 65 58 58 48 29 45 48 45 48 65 74 71 74 74 74 87 84 71 58 42 35 10 10 13 16 19
0 0 0 0 0 19 35 61 65 74 87 90 94 94 84 71 48 42 35 32 26 29 39 35 42 45 55 32 23 23 3 16 26 39 39 29 39 45 65 65 84 74 52 32 29 19 23 23 29
0 0 0 3 6 10 29 45 65 77 77 81 77 74 65 52 35 19 26 13 3 6 10 32 29 29 32 45 52 39 16 6 3 13 10 10 10 13 10 55 58 68 74 55 42 39 32 29 13
0 0 0 0 0 6 16 26 42 52 52 55 58 48 45 19 16 3 3 0 0 0 3 0 16 29 45 29 13 6 6 3 6 3 3 0 0 3 6 19 32 65 71 68 45 42 26 23 23
0 0 0 0 0 3 0 6 39 52 39 29 29 16 6 6 6 3 0 0 0 0 0 6 16 23 16 10 6 0 0 0 0 3 0 0 0 0 3 3 3 26 48 58 48 35 42 32 19
0 0 0 0 0 0 0 0 26 39 35 23 16 13 6 3 0 0 0 0 0 0 0 3 6 3 3 3 0 0 0 0 0 0 0 0 0 0 0 0 0 3 6 16 26 39 48 45 19
0 0 0 0 0 0 0 0 23 42 39 23 3 3 3 0 0 0 0 0 0 0 0 0 0 0 0 0 0 0 0 0 0 0 0 0 0 0 0 0 0 0 3 3 6 13 23 29 16
0 0 0 0 0 0 0 0 29 35 35 10 0 6 3 0 0 0 0 0 0 0 0 0 0 0 0 0 0 0 0 0 0 0 0 0 0 0 0 0 0 0 0 0 3 6 13 6 13
0 0 0 0 0 0 0 3 52 19 3 0 0 0 0 0 0 0 0 0 0 0 0 0 0 0 0 0 0 0 0 0 0 0 0 0 0 0 0 0 0 0 0 0 0 0 3 3 10
0 0 0 0 0 0 0 39 3 0 0 0 0 0 0 0 0 0 0 0 0 0 0 0 0 0 0 0 0 0 0 0 0 0 0 0 0 0 0 0 0 0 0 0 0 0 0 0 0
0 0 0 0 0 0 0 13 35 0 0 0 0 0 0 0 0 0 0 0 0 0 0 0 0 0 0 0 0 0 0 0 0 0 0 0 0 0 0 0 0 0 0 0 0 0 0 0 0
0 0 0 0 0 0 0 0 0 0 0 0 0 0 0 0 0 0 0 0 0 0 0 0 0 0 0 0 0 0 0 0 0 0 0 0 0 0 0 0 0 0 0 0 0 0 0 0 0
0 0 0 0 0 0 0 0 0 0 0 0 0 0 0 0 0 0 0 0 0 0 0 0 0 0 0 0 0 0 0 0 0 0 0 0 0 0 0 0 0 0 0 0 0 0 0 0 0

GEFSSGP_con_cape1000_030.txt.gz
Probability
6 0 0 0 0 0 3 16 6 0 0 0 6 13 39 65 84 97 100 100 97 100 100 100 100 100 100 100 100 100 100 100 100 100 100 100 100 100 100 100 100 100 100 100 100 100 100 100 100
0 0 0 0 0 3 3 13 0 0 0 0 0 3 10 68 100 100 100 97 97 100 100 100 100 100 100 100 100 100 100 100 100 100 100 100 100 100 100 100 100 100 100 100 100 100 100 100 100
0 0 0 0 0 10 13 0 0 0 0 0 0 0 0 39 97 100 100 97 100 100 100 100 100 100 100 100 100 100 100 100 100 100 100 100 100 100 100 100 100 100 100 100 100 100 100 100 100
0 0 0 0 0 3 10 3 0 3 3 0 6 3 0 6 84 100 100 94 100 100 100 100 100 100 100 100 100 100 100 100 100 100 100 100 100 100 100 100 100 100 100 100 100 100 100 100 100
0 0 0 0 0 0 0 3 10 6 3 10 3 0 0 55 97 100 100 97 100 100 100 100 100 100 100 100 100 100 100 100 100 100 100 100 100 100 100 100 100 100 100 100 100 100 100 100 100
0 0 0 0 0 0 0 3 16 19 19 10 3 0 3 55 90 100 100 100 100 100 100 100 100 100 100 100 100 100 100 100 100 100 100 100 100 100 100 100 100 100 100 100 100 100 100 100 100
0 0 0 0 0 0 3 3 10 39 45 48 19 3 6 39 81 94 100 100 100 100 100 100 100 100 100 100 100 100 100 100 100 100 100 100 100 100 100 100 100 100 100 100 100 100 100 100 100
0 0 0 0 0 0 10 16 29 45 48 42 26 13 13 35 68 94 100 97 97 100 100 97 100 100 100 100 100 100 100 100 100 100 100 100 100 100 100 100 100 100 100 100 100 100 100 100 100
0 0 0 0 0 0 10 26 39 61 61 58 55 32 29 58 77 94 100 97 94 97 100 100 100 100 100 100 100 100 100 100 100 100 100 100 100 100 100 100 100 100 100 100 100 100 100 100 100
0 0 0 0 0 3 6 23 42 77 77 77 65 71 58 77 81 94 97 94 94 90 90 97 97 97 97 100 100 100 100 100 100 100 100 100 100 100 100 100 100 97 97 97 100 100 100 90 87
0 0 0 0 0 6 26 52 81 90 94 87 81 81 84 84 84 84 84 87 71 77 84 90 84 90 94 97 100 97 100 100 97 97 100 100 97 97 90 68 74 94 97 94 84 77 74 71 68
0 0 0 0 0 6 16 61 77 90 94 90 94 84 87 87 81 77 77 74 68 65 61 65 65 65 77 87 94 90 90 90 90 97 100 97 94 81 71 52 42 42 48 48 45 39 35 26 29
0 0 0 0 0 16 39 71 87 84 90 90 87 90 84 77 77 77 74 58 52 52 48 52 45 39 45 52 65 71 65 74 87 87 97 94 87 71 58 42 23 23 19 19 19 13 10 10 13
0 0 0 0 3 23 52 77 87 84 87 84 77 84 77 77 74 74 58 55 52 39 39 42 39 35 32 35 32 32 35 58 52 77 84 84 68 58 48 29 19 13 13 10 10 3 3 3 6
0 0 0 0 3 19 48 71 84 81 84 84 74 74 81 68 61 65 58 45 39 16 19 19 16 13 16 16 23 26 29 32 35 42 48 48 48 42 39 19 19 13 10 6 3 0 3 0 0
0 0 0 0 0 0 23 58 81 77 77 77 71 77 77 71 52 55 52 48 39 19 10 13 10 6 3 6 10 13 10 13 19 19 26 35 35 45 32 13 10 13 10 6 0 0 3 0 0
0 0 0 0 0 10 23 48 65 65 74 71 71 74 74 68 61 55 42 32 29 19 10 6 3 0 0 0 0 3 3 6 6 16 10 23 19 23 13 10 10 6 3 0 0 0 3 0 0
0 0 0 0 3 10 23 35 45 55 68 71 68 77 77 71 48 39 39 26 26 19 13 10 0 0 0 0 0 0 0 0 0 0 3 6 13 10 0 6 3 3 6 0 0 3 0 0 0
0 0 0 0 0 6 13 29 39 45 48 61 61 61 55 42 48 32 29 26 16 10 10 3 0 0 0 0 0 0 0 0 0 0 0 0 0 0 0 0 0 0 3 3 0 0 0 0 0
0 0 0 0 6 6 13 19 29 42 48 45 48 58 45 29 29 35 26 23 16 10 6 0 0 0 0 0 0 0 0 0 0 0 0 0 0 0 0 0 0 0 0 0 0 0 0 0 0
0 0 0 6 6 6 6 13 23 23 35 39 35 32 23 16 16 23 23 13 10 6 6 3 0 0 0 0 0 0 0 0 0 0 0 0 0 0 0 0 0 0 0 0 0 0 0 0 0
0 0 3 3 0 0 0 0 6 10 10 13 23 23 13 6 3 10 16 6 3 0 0 0 0 0 0 0 0 0 0 0 0 0 0 0 0 0 0 0 0 0 0 0 0 0 0 0 0
0 0 0 0 0 0 0 0 0 6 10 10 6 10 3 0 0 3 0 0 0 0 0 0 0 0 0 0 0 0 0 0 0 0 0 0 0 0 0 0 0 0 0 0 0 0 0 0 0
0 0 0 0 0 0 0 0 0 0 3 6 3 0 0 0 0 0 0 0 0 0 0 0 0 0 0 0 0 0 0 0 0 0 0 0 0 0 0 0 0 0 0 0 0 0 0 0 0
0 0 0 0 0 0 0 0 0 0 0 6 0 0 0 0 0 0 0 0 0 0 0 0 0 0 0 0 0 0 0 0 0 0 0 0 0 0 0 0 0 0 0 0 0 0 0 0 0
0 0 0 0 0 0 0 0 0 0 0 3 0 0 0 0 0 0 0 0 0 0 0 0 0 0 0 0 0 0 0 0 0 0 0 0 0 0 0 0 0 0 0 0 0 0 0 0 0
0 0 0 0 0 0 0 0 0 0 0 0 0 0 0 0 0 0 0 0 0 0 0 0 0 0 0 0 0 0 0 0 0 0 0 0 0 0 0 0 0 0 0 0 0 0 0 0 0
0 0 0 0 0 0 0 0 0 0 0 0 0 0 0 0 0 0 0 0 0 0 0 0 0 0 0 0 0 0 0 0 0 0 0 0 0 0 0 0 0 0 0 0 0 0 0 0 0
0 0 0 0 0 0 0 0 0 0 0 0 0 0 0 0 0 0 0 0 0 0 0 0 0 0 0 0 0 0 0 0 0 0 0 0 0 0 0 0 0 0 0 0 0 0 0 0 0
0 0 0 0 0 0 0 0 0 0 0 0 0 0 0 0 0 0 0 0 0 0 0 0 0 0 0 0 0 0 0 0 0 0 0 0 0 0 0 0 0 0 0 0 0 0 0 0 0

GEFSSGP_con_cape1000_036.txt.gz
Probability
42 0 0 0 0 0 0 0 6 6 0 10 52 87 97 100 81 32 81 94 100 100 100 100 100 100 100 100 100 100 100 100 100 100 100 100 100 100 100 100 100 100 100 100 100 100 100 100 100
6 0 0 0 0 0 0 3 6 0 0 0 10 71 94 100 100 100 100 100 100 100 100 100 100 100 100 100 100 100 100 100 100 100 100 100 100 100 100 100 100 100 100 100 100 100 100 100 100
0 0 0 0 0 0 0 0 0 0 0 0 0 3 87 100 100 100 100 100 100 100 100 100 100 100 100 100 100 100 100 100 100 100 100 100 100 100 100 100 100 100 100 100 100 100 100 100 97
0 0 0 0 0 0 0 0 0 0 3 0 0 3 58 100 100 100 100 100 100 100 100 100 100 100 100 100 100 100 100 100 100 100 100 100 100 100 100 100 100 100 100 100 100 100 100 100 100
0 0 0 0 0 0 3 3 0 3 3 0 0 35 81 100 100 100 100 100 100 100 100 100 100 100 100 100 100 100 100 100 100 100 100 100 100 100 100 100 100 100 100 100 100 100 100 100 100
0 0 0 0 0 3 3 3 3 6 23 10 13 45 84 97 100 100 100 100 100 100 100 100 100 100 100 100 100 100 100 100 100 100 100 100 100 100 100 100 100 100 100 100 100 100 100 100 100
0 0 0 0 0 3 6 13 23 39 35 29 29 58 84 97 100 100 97 100 100 100 100 100 100 100 100 100 100 100 100 100 100 100 100 100 100 100 100 100 100 100 100 100 100 100 100 100 100
0 0 0 0 0 6 3 26 39 48 52 55 45 71 90 100 100 100 100 100 100 100 100 100 100 100 100 100 100 100 100 100 100 100 100 100 100 100 100 100 100 100 100 100 100 100 100 100 100
0 0 0 0 0 13 16 35 61 58 65 68 77 71 90 97 100 100 100 100 100 100 100 100 100 100 100 100 100 100 100 100 100 100 100 100 100 100 100 100 100 100 100 100 100 100 100 100 100
0 0 0 0 0 10 26 58 71 81 84 74 84 94 94 97 100 100 94 90 90 94 94 84 94 97 100 100 100 97 97 100 100 100 100 100 100 100 100 100 100 100 100 100 94 97 97 87 84
0 0 0 0 0 6 23 61 77 81 81 81 90 94 94 94 97 94 84 74 74 71 84 77 74 81 84 90 94 94 94 94 100 100 100 100 100 97 100 100 97 94 100 94 90 97 84 77 65
0 0 0 3 6 10 42 74 84 90 87 87 94 94 90 87 87 87 84 74 71 61 58 48 45 52 61 65 68 68 77 77 77 87 90 94 90 94 84 74 71 61 52 55 65 61 55 48 45
0 0 0 13 35 45 61 84 87 90 84 90 94 87 84 81 87 71 61 55 52 45 39 23 26 26 23 29 35 39 42 45 45 52 68 84 84 81 61 52 39 29 23 26 23 26 26 29 29
0 3 10 19 52 65 74 77 81 84 87 77 84 74 68 74 58 48 42 29 19 19 10 10 3 3 3 13 13 13 13 23 19 19 29 42 58 58 45 39 16 10 10 13 10 10 6 10 6
0 3 3 16 39 65 65 74 74 74 77 77 68 61 58 61 52 45 29 16 10 6 6 3 0 0 0 0 0 0 3 3 3 3 6 13 19 26 23 16 16 10 6 6 6 6 6 6 6
0 0 3 0 19 45 45 55 68 68 71 81 68 61 58 48 48 45 26 13 6 6 0 0 0 0 0 0 0 0 0 0 0 0 0 3 6 13 13 13 13 10 3 3 3 3 3 6 6
0 0 0 0 6 26 45 48 61 58 58 65 74 61 55 48 35 39 29 6 6 0 0 0 0 0 0 0 0 0 0 0 0 0 0 0 3 3 0 0 0 3 3 3 3 6 6 3 6
0 0 0 0 13 35 42 48 55 52 52 58 61 61 55 48 29 23 26 13 0 0 0 0 0 0 0 0 0 0 0 0 0 0 0 0 0 0 0 0 0 0 0 0 0 0 0 0 0
0 0 0 3 6 23 35 39 48 45 48 45 52 45 52 39 26 16 19 16 0 0 0 0 0 0 0 0 0 0 0 0 0 0 0 0 0 0 0 0 0 0 0 0 0 0 0 0 0
0 0 0 3 10 13 26 35 42 35 32 32 35 35 35 29 26 23 16 13 0 0 0 0 0 0 0 0 0 0 0 0 0 0 0 0 0 0 0 0 0 0 0 0 0 0 0 0 0
0 0 0 3 6 6 3 10 19 23 32 29 29 23 26 19 6 3 10 6 0 0 0 0 0 0 0 0 0 0 0 0 0 0 0 0 0 0 0 0 0 0 0 0 0 0 0 0 0
0 0 0 3 0 0 0 0 0 10 10 23 23 16 13 16 10 0 0 0 0 0 0 0 0 0 0 0 0 0 0 0 0 0 0 0 0 0 0 0 0 0 0 0 0 0 0 0 0
0 0 0 0 0 0 0 0 0 0 3 10 13 10 10 10 3 0 0 0 0 0 0 0 0 0 0 0 0 0 0 0 0 0 0 0 0 0 0 0 0 0 0 0 0 0 0 0 0
0 0 0 0 0 0 0 0 0 0 0 0 6 10 6 6 0 0 0 0 0 0 0 0 0 0 0 0 0 0 0 0 0 0 0 0 0 0 0 0 0 0 0 0 0 0 0 0 0
0 0 0 0 0 0 0 0 0 0 0 0 0 0 0 0 0 0 0 0 0 0 0 0 0 0 0 0 0 0 0 0 0 0 0 0 0 0 0 0 0 0 0 0 0 0 0 0 0
0 0 0 0 0 0 0 0 0 0 0 0 0 0 0 0 0 0 0 0 0 0 0 0 0 0 0 0 0 0 0 0 0 0 0 0 0 0 0 0 0 0 0 0 0 0 0 0 0
0 0 0 0 0 0 0 0 0 0 0 0 0 0 0 0 0 0 0 0 0 0 0 0 0 0 0 0 0 0 0 0 0 0 0 0 0 0 0 0 0 0 0 0 0 0 0 0 0
0 0 0 0 0 0 0 0 0 0 0 0 0 0 0 0 0 0 0 0 0 0 0 0 0 0 0 0 0 0 0 0 0 0 0 0 0 0 0 0 0 0 0 0 0 0 0 0 0
0 0 0 0 0 0 0 0 0 0 0 0 0 0 0 0 0 0 0 0 0 0 0 0 0 0 0 0 0 0 0 0 0 0 0 0 0 0 0 0 0 0 0 0 0 0 0 0 0
0 0 0 0 0 0 0 0 0 0 0 0 0 0 0 0 0 0 0 0 0 0 0 0 0 0 0 0 0 0 0 0 0 0 0 0 0 0 0 0 0 0 0 0 0 0 0 0 0

GEFSSGP_con_cape1000_042.txt.gz
Probability
74 29 3 3 16 23 3 6 19 13 32 65 74 84 84 81 81 94 100 90 100 100 100 100 100 100 100 100 100 100 100 100 100 100 100 100 100 100 100 100 100 100 100 97 100 100 100 97 97
29 6 3 6 19 0 0 3 13 13 16 26 32 52 52 81 90 100 100 100 100 100 100 100 100 100 100 100 100 100 100 100 100 100 100 100 100 100 100 100 100 100 100 100 94 97 100 100 90
10 0 0 0 0 0 0 3 10 6 10 10 42 65 77 97 100 97 100 100 94 100 100 100 100 100 100 100 100 100 100 100 100 100 100 100 100 100 100 100 100 100 100 100 97 100 100 100 90
6 0 0 0 0 6 6 10 19 13 16 23 32 84 100 100 100 100 100 100 94 100 100 100 100 100 100 100 100 100 100 100 100 100 100 100 100 100 100 100 100 100 100 100 100 100 100 100 97
3 3 0 0 3 10 10 16 26 32 48 45 52 90 100 100 100 100 100 100 97 100 100 100 100 100 100 100 100 100 100 100 100 100 100 100 100 100 100 100 100 100 100 100 100 100 100 100 100
3 0 0 0 3 6 23 29 45 58 74 71 77 90 100 100 100 100 100 97 97 100 100 100 100 100 100 100 100 100 100 100 100 100 100 100 100 100 100 100 100 100 100 100 100 100 100 100 100
0 0 0 0 6 10 23 39 48 84 84 81 87 90 100 100 100 100 100 97 97 97 97 100 100 100 100 100 100 100 100 100 100 100 100 100 100 100 100 100 100 100 100 100 100 100 100 100 100
0 0 0 0 6 13 16 45 74 74 94 94 94 97 100 100 100 100 100 100 100 97 97 97 97 97 97 94 94 94 97 97 97 97 97 100 100 100 100 100 100 100 100 100 100 100 100 97 100
0 0 0 0 6 13 26 42 68 84 90 94 97 97 100 100 100 100 100 100 100 100 97 90 90 97 97 94 90 90 90 94 94 94 94 97 97 100 100 100 100 100 100 100 100 97 97 97 97
0 0 0 0 0 10 19 35 65 77 87 90 97 100 100 100 100 100 100 97 97 97 94 97 94 90 87 81 90 87 87 94 97 97 97 97 97 97 97 100 100 100 100 100 100 97 94 94 90
0 0 0 0 6 10 13 39 55 65 87 94 100 100 100 100 100 97 90 77 84 90 90 90 87 87 74 74 77 81 87 90 94 90 94 97 97 94 97 97 100 100 97 100 97 97 94 87 81
0 0 3 6 16 16 19 35 61 87 87 100 100 100 100 100 97 97 100 97 97 87 81 74 90 87 84 81 77 71 68 74 74 77 81 87 97 100 94 100 100 94 94 94 94 100 90 90 84
0 0 3 42 45 32 35 58 81 90 100 100 100 100 100 100 100 94 97 97 97 94 90 84 94 84 84 84 61 52 58 39 42 58 58 71 65 81 81 90 90 81 81 81 77 74 84 87 81
0 6 16 52 61 68 61 81 87 100 100 100 100 100 100 100 100 97 97 94 94 94 94 87 84 77 71 58 55 39 29 29 23 23 19 39 42 58 68 74 77 74 81 77 74 68 71 71 68
3 16 29 68 84 87 84 94 97 100 100 100 100 100 100 100 100 97 97 94 90 90 84 77 71 55 48 42 35 29 13 10 10 10 10 6 13 26 42 52 52 58 55 71 61 55 52 55 55
0 0 6 52 77 87 87 68 94 100 100 100 100 100 100 100 97 97 90 90 87 84 74 61 23 42 35 26 19 10 3 3 3 0 0 3 3 10 19 23 29 42 39 32 39 29 29 35 35
0 0 0 35 58 71 68 74 100 97 94 94 87 84 84 84 84 84 87 77 84 77 68 52 32 23 13 10 6 6 6 0 0 0 0 0 3 3 10 10 23 19 13 13 13 16 23 19 26
0 0 0 6 42 45 52 74 84 87 90 84 81 84 84 81 74 68 65 68 61 58 48 42 26 19 10 6 6 0 0 0 0 0 0 0 0 3 0 0 3 0 0 3 6 6 10 13 16
0 0 0 3 35 39 45 55 65 74 84 71 65 65 58 68 55 58 58 42 29 39 39 29 16 13 6 3 0 0 0 0 0 0 0 0 0 0 0 0 0 0 0 0 0 3 3 3 3
0 0 0 19 23 26 52 48 55 61 52 55 48 48 42 45 39 48 48 39 35 35 26 29 19 13 10 6 0 0 0 0 0 0 0 0 0 0 0 0 0 0 0 0 0 0 0 0 0
0 0 0 13 26 29 32 29 39 39 39 39 39 35 26 29 26 32 32 35 29 35 42 26 35 26 19 6 0 0 3 0 0 0 0 0 0 0 0 0 0 0 0 0 0 0 0 0 0
0 0 0 6 19 19 10 3 32 26 29 29 29 42 29 23 16 16 19 29 29 29 35 52 58 58 42 29 3 0 6 0 0 0 0 0 0 0 0 0 0 0 0 0 0 0 0 0 0
0 0 0 3 0 0 6 0 6 19 23 26 29 35 29 29 23 26 29 32 35 39 52 65 74 74 55 35 26 26 10 3 0 0 0 0 0 0 0 0 0 0 0 0 0 0 0 0 0
0 0 0 0 0 0 0 0 0 3 10 13 23 26 35 26 23 39 39 48 71 65 65 68 81 77 68 35 29 19 16 6 0 0 0 0 0 0 0 0 0 0 0 0 0 0 0 0 0
0 0 0 0 0 0 0 0 0 0 3 3 6 19 29 32 39 48 55 52 55 52 42 39 61 61 52 23 13 10 6 3 0 0 0 0 0 0 0 0 0 0 0 0 0 0 0 0 0
0 0 0 0 0 0 0 0 0 0 3 3 0 6 19 26 29 29 32 48 42 42 26 16 19 26 10 3 3 3 0 0 0 0 0 0 0 0 0 0 0 0 0 0 0 0 0 0 0
0 0 0 0 0 0 0 0 0 0 0 0 0 3 13 16 13 6 16 26 26 19 16 6 3 3 3 3 3 0 0 0 0 0 0 0 0 0 0 0 0 0 0 0 0 0 0 0 0
0 0 0 0 0 0 0 0 0 0 0 0 0 0 3 0 0 3 10 6 6 6 3 0 0 0 0 0 0 0 0 0 0 0 0 0 0 0 0 0 0 0 0 0 0 0 0 0 0
0 0 0 0 0 0 0 0 0 0 0 0 0 0 3 0 0 0 3 3 0 0 0 0 0 0 0 0 0 0 0 0 0 0 0 0 0 0 0 0 0 0 0 0 0 0 0 0 0
0 0 0 0 0 0 0 0 0 0 0 0 0 0 0 0 0 0 0 0 0 0 0 0 0 0 0 0 0 0 0 0 0 0 0 0 0 0 0 0 0 0 0 0 0 0 0 0 0

GEFSSGP_con_cape1000_048.txt.gz
Probability
81 81 81 94 100 84 16 3 3 0 0 3 23 48 65 77 74 42 35 90 100 100 100 100 100 100 100 100 100 100 100 100 100 100 100 100 100 100 100 100 100 94 90 87 87 94 94 90 90
42 71 84 90 77 35 3 0 3 3 0 3 26 35 48 45 42 39 61 97 100 97 100 100 100 100 100 100 100 100 100 100 100 100 100 100 100 100 100 100 100 100 94 90 77 87 94 84 81
42 74 61 48 45 3 0 0 3 0 0 10 32 77 74 52 48 81 65 87 100 100 100 100 100 100 100 100 100 100 100 100 100 100 100 100 100 100 100 100 100 100 97 97 90 84 90 90 84
58 65 23 10 3 0 0 0 0 0 3 10 45 90 90 84 87 77 61 87 100 100 100 100 100 100 100 100 100 100 100 100 100 100 100 100 100 100 100 100 100 100 97 97 97 100 100 94 94
55 19 6 3 0 0 0 0 0 3 6 19 81 97 97 97 84 55 71 94 100 100 100 100 100 100 100 100 100 100 100 100 100 100 100 100 100 100 100 100 100 100 100 100 100 100 100 100 97
16 10 0 0 0 0 0 0 3 10 19 39 87 94 97 100 81 65 81 87 100 100 100 100 100 100 100 100 100 100 100 100 100 100 100 100 100 100 100 100 100 100 100 100 100 100 100 100 100
3 0 0 0 0 3 0 3 10 23 23 42 74 94 100 100 90 81 87 97 100 100 100 100 100 100 100 100 100 100 100 100 100 100 100 100 97 97 97 100 100 97 100 100 100 100 100 100 100
0 0 0 0 0 3 3 6 23 26 29 52 61 90 97 100 100 90 97 97 100 100 100 100 100 97 97 100 100 100 100 100 100 97 97 97 94 90 90 94 94 97 97 100 100 100 100 100 100
0 0 0 0 0 0 3 13 16 23 42 61 77 87 97 97 100 100 100 100 100 100 100 100 94 94 94 94 94 97 100 94 90 100 100 94 94 94 87 90 90 90 90 100 100 100 100 100 100
0 0 0 0 0 0 0 13 23 35 58 77 90 94 97 100 100 100 100 100 100 97 97 97 87 90 87 87 94 87 87 90 94 94 90 84 87 87 87 90 90 90 97 94 100 100 97 97 97
0 0 0 0 0 3 3 10 19 29 58 58 81 94 100 100 100 100 97 97 94 97 90 87 87 84 84 74 74 77 84 90 87 87 81 81 84 87 84 90 90 97 90 94 97 100 94 94 87
0 0 0 0 3 3 3 10 29 58 61 52 68 84 97 100 100 100 100 97 97 94 94 90 87 84 87 81 71 77 71 65 65 61 55 65 65 84 81 90 94 97 97 97 97 94 97 94 90
0 0 0 3 6 6 6 13 35 61 52 65 71 84 97 97 100 100 97 94 97 90 90 87 87 90 87 77 77 58 58 35 29 32 32 29 35 55 58 68 90 90 87 87 90 90 87 77 77
0 0 0 0 3 3 0 10 35 61 55 65 71 87 97 100 100 100 97 90 90 90 94 94 90 81 74 71 58 52 32 35 19 10 6 6 13 29 35 52 84 84 87 84 90 87 84 84 81
0 0 0 0 0 0 6 13 29 52 65 74 87 94 100 97 97 94 87 87 87 87 87 81 74 74 58 45 35 26 19 3 3 6 3 3 3 6 6 23 48 71 71 77 77 74 74 81 74
0 0 0 0 0 0 3 16 32 45 65 77 90 100 97 97 94 94 90 87 87 87 84 77 42 42 42 39 26 10 6 3 3 3 3 0 0 3 3 10 13 32 35 39 58 61 55 52 52
0 0 0 0 0 0 6 16 16 32 61 77 84 90 94 94 94 90 90 87 87 90 84 77 65 45 32 26 19 13 10 3 3 3 0 0 0 0 3 6 6 16 26 26 26 39 29 35 42
0 0 0 0 0 0 0 16 16 35 42 68 77 90 87 84 87 84 77 84 84 87 81 81 68 48 39 23 23 16 6 3 0 0 0 0 0 0 3 3 6 6 10 23 23 23 26 23 26
0 0 0 0 0 0 0 16 23 48 55 68 71 74 74 74 65 71 77 74 74 81 77 81 68 68 58 48 39 42 35 13 3 0 0 0 0 0 0 0 3 3 3 16 6 10 10 16 23
0 0 0 0 0 0 0 10 19 35 32 45 61 65 61 58 58 65 68 52 52 81 84 90 87 84 68 77 65 61 35 26 13 3 0 0 0 0 0 0 0 0 3 0 3 0 3 0 0
0 0 0 0 0 0 0 3 6 29 29 26 32 45 48 52 52 48 52 48 48 81 90 65 94 87 84 68 55 52 42 48 32 10 6 0 0 0 0 0 0 0 0 0 0 0 0 0 0
0 0 0 0 0 0 0 0 10 16 29 29 16 32 39 32 39 45 48 39 39 77 77 97 97 90 87 81 74 68 55 35 26 19 13 0 0 0 0 0 0 0 0 0 0 0 0 3 3
0 0 0 0 0 0 0 0 13 26 32 29 23 23 29 23 26 35 39 52 45 55 77 94 94 94 94 84 74 65 61 42 26 16 6 0 0 0 0 0 0 0 0 0 0 0 0 0 0
0 0 0 0 0 0 0 0 13 26 32 29 29 32 39 29 29 45 26 77 74 65 81 87 94 94 87 84 74 65 48 32 23 13 6 3 0 0 0 0 0 0 0 0 0 0 0 0 0
0 0 0 0 0 0 0 0 10 3 13 10 26 26 39 39 35 29 32 48 77 68 68 74 94 94 90 81 61 52 39 19 13 10 3 3 0 0 0 0 0 0 0 0 0 0 0 0 0
0 0 0 0 0 0 0 0 3 3 3 3 6 23 29 26 23 23 26 52 68 58 68 74 84 87 81 55 58 29 10 6 10 6 0 0 0 0 0 0 0 0 0 0 0 0 0 0 0
0 0 0 0 0 0 0 3 0 3 3 0 0 3 6 13 13 26 29 39 48 65 58 58 68 61 48 32 35 26 10 6 3 0 0 0 0 0 0 0 0 0 0 0 0 0 0 0 0
0 0 0 0 0 0 0 0 0 0 0 0 3 3 10 13 6 13 13 19 26 35 58 39 55 39 23 16 13 3 3 10 10 0 0 0 0 0 0 0 0 0 0 0 0 0 0 0 0
0 0 0 0 0 0 0 0 0 0 0 0 0 3 6 10 3 6 10 6 13 19 23 13 29 26 10 3 0 0 0 3 0 0 0 0 0 0 0 0 0 0 0 0 0 0 0 0 0
0 0 0 0 0 0 0 0 0 0 0 0 0 0 0 0 3 0 0 0 6 3 3 3 3 3 3 0 0 0 0 0 0 0 0 0 3 3 0 0 0 0 0 0 0 0 0 0 0

GEFSSGP_con_cape1000_054.txt.gz
Probability
100 94 74 52 61 32 10 6 0 0 0 0 13 16 16 29 29 45 84 94 100 100 100 100 100 100 100 100 100 100 100 100 100 100 100 100 100 100 100 100 100 100 97 100 100 97 94 97 100
81 68 52 48 58 16 0 0 0 0 0 6 10 23 29 84 97 100 97 94 100 100 100 100 100 100 100 100 100 100 100 100 100 100 100 100 100 100 100 100 100 100 100 100 100 90 87 90 90
35 32 39 42 29 10 3 0 0 0 3 16 29 39 48 81 90 100 100 94 97 100 100 100 100 100 100 100 100 100 100 100 100 100 100 100 100 100 100 100 100 100 100 97 97 90 84 84 81
13 19 23 29 16 3 3 0 3 3 16 23 39 52 58 74 90 94 94 90 100 100 100 100 100 100 100 100 100 100 100 100 100 100 100 100 100 100 100 100 100 97 97 97 97 97 90 84 90
3 13 23 13 6 0 0 3 3 6 13 26 39 52 65 81 90 90 84 94 100 100 100 100 100 100 100 100 100 100 100 100 100 100 100 100 100 100 100 100 100 100 97 97 100 100 100 90 77
3 6 6 3 0 0 0 0 13 16 16 29 35 39 52 77 87 87 87 90 100 100 100 100 100 100 100 100 100 100 100 100 100 100 100 100 100 100 100 100 100 100 100 100 100 100 100 100 97
3 6 3 3 0 0 0 13 19 26 19 26 32 52 45 61 71 81 94 94 100 100 100 100 100 100 100 100 100 100 100 100 100 100 100 100 100 100 100 100 100 100 100 100 100 100 100 100 100
0 0 0 0 0 0 0 6 26 19 16 19 26 42 52 65 65 81 94 94 94 94 94 94 100 100 100 100 100 100 100 100 100 97 97 97 97 94 90 90 100 100 100 100 100 100 100 100 100
0 0 0 0 0 0 0 10 16 16 26 26 26 42 48 52 71 71 90 87 90 81 90 90 94 90 94 97 100 100 100 97 97 97 97 84 71 71 84 90 87 87 100 100 100 100 100 100 100
0 0 0 0 0 0 6 10 13 19 26 29 39 45 48 55 61 77 90 87 81 84 84 77 81 81 77 77 77 81 81 71 61 55 52 42 42 42 61 84 87 87 90 94 97 100 100 97 94
0 0 0 0 0 3 10 13 19 16 23 32 45 45 48 48 55 74 90 87 84 84 81 74 74 71 74 74 68 61 42 26 19 16 16 19 13 16 19 26 39 55 77 71 77 90 87 90 81
0 0 0 0 0 3 10 13 13 23 23 32 39 42 52 48 61 71 77 77 81 77 71 71 61 61 61 55 35 32 19 10 3 3 6 10 3 3 0 3 23 23 26 42 39 45 65 65 55
0 0 0 0 6 6 10 10 19 23 19 23 32 45 48 48 58 61 74 77 68 71 71 65 55 48 45 26 19 3 6 6 0 0 0 3 0 0 0 0 0 6 3 6 6 10 23 29 29
0 0 0 0 3 3 6 10 16 13 23 29 32 32 42 52 55 65 77 81 71 71 68 61 45 29 16 16 10 0 6 0 0 0 0 0 0 0 0 0 0 0 0 0 0 0 0 3 6
0 0 0 0 0 0 10 10 10 19 29 29 29 32 42 55 61 68 77 74 74 71 68 58 39 23 16 10 6 6 3 0 0 0 0 0 0 0 0 0 0 0 0 0 0 0 0 0 0
0 0 0 0 0 0 3 3 10 10 26 29 29 32 52 55 61 65 74 81 71 61 48 29 26 10 10 6 6 0 0 0 0 0 0 0 0 0 0 0 0 0 0 0 0 0 0 0 0
0 0 0 0 0 0 3 3 13 13 32 29 32 35 52 52 52 61 74 71 58 48 39 19 16 10 10 6 0 0 0 0 0 0 0 0 0 0 0 0 0 0 0 0 0 0 0 0 0
0 0 0 0 0 0 3 6 10 13 19 29 29 32 42 48 55 58 61 65 52 29 19 13 13 10 3 3 0 0 0 0 0 0 0 0 0 0 0 0 0 0 0 0 0 0 0 0 0
0 0 0 0 0 0 3 6 10 13 16 16 23 32 42 55 52 55 68 58 39 23 13 10 13 3 0 0 0 0 0 0 0 0 0 0 0 0 0 0 0 0 0 0 0 0 0 0 0
0 0 0 0 0 0 3 3 10 10 10 13 16 19 35 39 48 55 55 42 26 16 13 10 3 3 3 3 0 0 0 0 0 0 0 0 0 0 0 0 0 0 0 0 0 0 0 0 0
0 0 0 0 0 0 3 3 10 13 6 10 19 23 26 39 42 48 55 32 26 13 10 6 3 0 0 0 0 0 0 0 0 0 0 0 0 0 0 0 0 0 0 0 0 0 0 0 0
0 0 0 0 0 0 0 0 0 3 6 13 13 19 19 32 35 29 32 29 26 13 10 6 6 0 0 0 0 0 0 0 0 0 0 0 0 0 0 0 0 0 0 0 0 0 0 0 0
0 0 0 0 0 0 0 0 0 3 10 6 16 13 16 29 32 23 16 19 16 10 10 10 3 0 0 0 0 0 0 0 0 0 0 0 0 0 0 0 0 0 0 0 0 0 0 0 0
0 0 0 0 0 0 0 0 0 3 3 3 13 10 16 23 32 26 19 10 13 10 16 16 3 6 3 3 0 0 0 0 0 0 0 0 0 0 0 0 0 0 0 0 0 0 0 0 0
0 0 0 0 0 0 0 0 0 0 0 0 10 13 13 19 19 19 16 10 13 10 23 23 13 3 3 0 0 0 0 0 0 0 0 0 0 0 0 0 0 0 0 0 0 0 0 0 0
0 0 0 0 0 0 0 0 0 0 0 0 6 13 10 10 10 16 10 10 6 19 23 26 13 13 10 10 3 0 0 0 0 0 0 0 0 0 0 0 0 0 0 0 0 0 0 0 0
0 0 0 0 0 0 0 0 0 0 0 3 6 3 10 13 13 13 10 10 3 10 13 16 16 10 16 13 3 0 0 0 0 0 0 0 0 0 0 0 0 0 0 0 0 0 0 0 0
0 0 0 0 0 0 0 0 0 0 0 0 3 3 10 10 10 6 3 3 3 6 10 16 13 16 10 6 0 0 0 0 0 0 0 0 0 0 0 0 0 0 0 0 0 0 0 0 0
0 0 0 0 0 0 0 0 0 0 0 0 0 3 0 0 3 6 3 3 0 0 10 19 16 10 3 6 0 0 0 0 0 0 0 0 0 0 0 0 0 0 0 0 0 0 0 0 0
0 0 0 0 0 0 0 0 0 0 0 0 0 0 0 0 0 0 0 0 0 3 16 23 13 10 6 0 0 0 0 0 0 0 0 0 0 0 0 0 0 0 0 0 0 0 0 0 0

GEFSSGP_con_cape1000_060.txt.gz
Probability
97 97 65 39 23 0 0 0 3 0 3 3 0 10 13 48 39 23 42 71 97 100 100 100 100 100 100 100 100 100 100 100 100 100 100 100 100 100 100 100 100 100 97 87 90 90 94 100 100
87 81 42 10 0 0 0 0 0 3 10 10 3 19 32 55 81 94 84 94 100 100 100 100 100 100 100 100 100 100 100 100 100 100 100 100 100 100 100 100 97 97 97 90 87 87 97 97 97
68 42 3 0 0 0 0 0 6 6 13 13 13 29 35 61 77 97 90 97 100 100 100 100 100 100 100 100 100 100 100 100 100 100 100 100 100 100 100 97 94 94 94 84 94 81 81 87 94
10 3 0 0 0 0 0 3 6 16 19 16 23 32 42 65 84 97 94 97 100 100 100 100 100 100 100 100 100 100 100 100 100 100 100 100 100 100 97 97 100 100 94 84 90 87 94 84 87
0 3 3 0 0 0 3 3 13 13 10 19 23 32 42 74 87 94 94 100 100 100 100 100 100 100 100 100 100 100 100 100 100 100 100 100 100 100 100 100 100 100 100 94 94 90 97 94 94
0 3 3 0 0 0 0 6 19 13 16 19 23 35 48 74 84 87 90 94 100 100 100 100 100 100 100 100 100 100 100 100 100 100 100 100 100 100 100 100 100 100 100 100 100 97 94 97 100
0 0 0 0 0 0 0 10 16 19 23 16 23 45 58 74 77 84 90 94 100 100 100 100 100 100 100 100 100 100 100 100 100 100 100 100 100 100 100 100 100 100 100 100 100 100 100 100 100
0 0 0 0 0 0 0 3 10 19 19 19 29 45 61 71 74 90 90 94 94 94 97 100 100 100 100 100 100 100 100 100 100 100 100 100 100 100 100 97 100 100 100 100 100 100 100 100 100
0 0 0 0 0 0 0 3 10 10 13 23 23 32 61 74 84 84 90 90 90 90 90 90 94 90 94 100 100 97 97 100 94 84 81 65 48 55 68 87 90 100 100 100 97 97 100 100 100
0 0 0 0 0 0 3 10 10 13 19 23 26 48 71 77 84 74 74 87 84 81 81 81 81 84 81 84 68 52 45 39 32 29 29 23 19 26 45 52 74 87 90 90 94 97 97 94 94
0 0 0 0 0 0 6 10 6 13 16 32 35 61 74 81 71 61 61 58 65 77 77 81 77 74 68 68 45 32 16 16 16 13 10 6 3 3 0 10 19 26 61 71 81 84 84 90 84
0 0 0 0 6 3 16 16 10 6 13 32 42 65 68 65 71 55 45 55 61 61 68 68 68 65 55 42 32 16 16 6 6 0 3 0 0 0 0 0 6 13 16 26 42 48 48 68 77
0 0 0 3 6 10 10 10 13 23 13 39 45 55 61 58 61 45 35 45 45 48 58 55 58 48 29 23 19 6 6 0 0 0 0 0 0 0 0 0 0 3 3 3 0 6 29 32 39
0 0 0 0 0 6 6 10 13 19 13 32 35 39 45 42 45 35 48 32 42 39 48 48 35 26 16 10 3 6 0 0 0 0 0 0 0 0 0 0 0 0 0 0 0 0 0 0 10
0 0 0 0 0 0 6 6 10 16 16 26 29 29 35 29 45 35 35 32 32 35 29 32 29 16 10 6 0 0 0 0 0 0 0 0 0 0 0 0 0 0 0 0 0 0 0 0 0
0 0 0 0 0 0 0 0 6 13 16 23 26 29 32 26 32 32 39 32 32 29 26 19 26 10 6 0 0 0 0 0 0 0 0 0 0 0 0 0 0 0 0 0 0 0 0 0 0
0 0 0 0 0 0 0 0 6 13 16 16 23 23 26 16 19 26 39 29 29 19 16 16 16 6 3 3 0 0 0 0 0 0 0 0 0 0 0 0 0 0 0 0 0 0 0 0 0
0 0 0 0 0 0 0 3 6 6 19 16 16 13 23 23 19 26 29 23 19 16 13 13 10 6 3 0 0 0 0 0 0 0 0 0 0 0 0 0 0 0 0 0 0 0 0 0 0
0 0 0 0 0 0 0 0 3 6 10 13 13 13 13 16 19 29 23 16 16 16 10 6 3 3 0 0 0 0 0 0 0 0 0 0 0 0 0 0 0 0 0 0 0 0 0 0 0
0 0 0 0 0 0 0 0 3 6 6 3 6 10 19 19 23 29 26 16 16 16 6 6 6 0 0 0 0 0 0 0 0 0 0 0 0 0 0 0 0 0 0 0 0 0 0 0 0
0 0 0 0 0 0 0 0 0 3 3 0 3 10 10 16 26 26 23 16 13 10 6 6 0 0 0 0 0 0 0 0 0 0 0 0 0 0 0 0 0 0 0 0 0 0 0 0 0
0 0 0 0 0 0 0 0 0 0 3 0 0 3 10 13 16 26 23 10 10 6 6 3 0 0 0 0 0 0 0 0 0 0 0 0 0 0 0 0 0 0 0 0 0 0 0 0 0
0 0 0 0 0 0 0 0 0 0 0 0 0 3 10 10 16 19 16 16 6 6 3 0 0 0 0 0 0 0 0 0 0 0 0 0 0 0 0 0 0 0 0 0 0 0 0 0 0
0 0 0 0 0 0 0 0 0 0 0 0 0 3 10 10 13 19 16 10 6 3 6 3 0 0 0 0 0 0 0 0 0 0 0 0 0 0 0 0 0 0 0 0 0 0 0 0 0
0 0 0 0 0 0 0 0 0 0 0 0 0 3 10 10 13 19 16 10 10 6 6 3 0 0 0 0 0 0 0 0 0 0 0 0 0 0 0 0 0 0 0 0 0 0 0 0 0
0 0 0 0 0 0 0 0 0 0 0 0 0 3 10 10 10 16 19 13 10 6 6 3 0 0 0 0 0 0 0 0 0 0 0 0 0 0 0 0 0 0 0 0 0 0 0 0 0
0 0 0 0 0 0 0 0 0 0 0 0 0 3 3 13 13 16 16 16 10 6 6 3 3 0 0 0 0 0 0 0 0 0 0 0 0 0 0 0 0 0 0 0 0 0 0 0 0
0 0 0 0 0 0 0 0 0 0 0 0 3 3 3 6 10 16 16 16 10 6 6 3 3 3 0 0 0 0 0 0 0 0 0 0 0 0 0 0 0 0 0 0 0 0 0 0 0
0 0 0 0 0 0 0 0 0 0 0 0 0 0 0 3 6 10 13 10 6 6 6 0 0 0 0 0 0 0 0 0 0 0 0 0 0 0 0 0 0 0 0 0 0 0 0 0 0
0 0 0 0 0 0 0 0 0 0 0 0 0 0 0 3 3 3 6 3 0 6 6 3 0 0 0 0 0 0 0 0 0 0 0 0 0 0 0 0 0 0 0 0 0 0 0 0 0

GEFSSGP_con_cape1000_066.txt.gz
Probability
87 77 87 97 97 6 0 0 0 3 10 29 23 23 26 23 10 65 84 16 19 58 77 97 100 100 100 100 100 100 100 100 100 100 100 100 100 100 100 100 97 87 81 81 87 90 94 100 100
58 74 84 74 13 0 0 0 0 6 29 32 35 39 42 68 74 90 81 29 32 55 65 68 100 100 100 100 100 100 100 100 100 100 100 100 100 100 97 94 97 90 77 77 84 87 97 97 97
55 68 48 6 0 0 0 0 3 13 29 32 45 42 48 68 87 94 87 42 32 52 77 100 100 100 100 100 100 100 100 100 100 100 100 100 100 97 94 94 90 84 81 71 77 81 90 94 100
52 42 29 0 0 0 0 0 16 29 35 45 45 48 58 74 90 94 90 55 42 81 87 100 100 100 100 100 100 100 100 100 100 100 100 100 100 97 97 94 97 87 84 77 74 87 90 90 100
16 3 0 0 0 0 0 6 19 29 39 48 45 58 74 87 97 97 97 65 74 71 81 94 100 100 100 100 100 100 100 100 100 100 100 100 100 100 100 97 97 100 97 94 90 90 97 94 94
0 0 0 0 0 0 3 13 35 39 52 48 45 58 81 90 94 100 100 87 65 77 84 97 100 100 100 100 100 100 100 100 100 100 100 100 97 97 100 100 100 100 100 97 94 97 100 100 100
0 0 0 0 0 0 6 16 39 42 45 52 58 65 81 87 97 97 100 94 87 81 87 97 90 97 100 100 100 100 100 100 100 100 100 100 100 100 97 94 97 100 100 100 100 97 97 100 100
0 0 0 0 0 0 0 16 42 52 55 61 58 71 84 90 94 97 100 94 97 94 97 97 97 97 97 97 100 100 100 100 100 100 100 100 100 97 97 97 97 97 97 97 97 97 100 100 100
0 0 0 0 0 0 0 10 35 55 61 58 68 84 87 87 90 97 94 100 100 97 97 97 94 97 97 94 94 100 100 97 97 97 84 87 87 90 90 87 90 90 97 97 94 94 94 100 94
0 0 0 0 0 0 3 6 19 45 58 65 71 87 90 87 90 94 94 94 94 97 94 97 94 100 97 94 100 100 97 94 77 74 71 68 74 77 68 61 77 81 84 87 81 90 94 87 87
0 0 0 0 0 0 0 3 13 23 39 55 81 87 90 90 90 87 90 90 90 97 97 94 94 97 100 100 97 87 81 77 61 55 55 58 52 52 58 65 68 81 84 87 84 84 77 77 90
0 0 0 0 0 0 0 0 3 13 29 42 61 87 84 87 87 84 84 87 84 90 90 87 90 97 100 90 84 71 55 48 39 45 45 29 32 35 42 58 58 68 81 87 81 84 77 77 87
0 0 0 0 3 0 0 0 6 10 23 35 58 77 87 87 84 84 84 87 90 90 87 90 90 90 87 87 77 48 42 29 26 29 19 13 10 13 13 32 52 52 61 65 77 74 87 90 90
0 0 0 0 0 0 0 3 6 23 26 39 55 74 84 84 87 84 90 90 87 84 87 84 84 87 87 74 68 42 29 26 26 13 10 6 3 6 13 13 26 26 39 55 58 58 74 68 65
0 0 0 0 0 0 0 3 10 13 35 39 58 71 81 87 84 77 77 84 84 84 84 84 77 81 68 61 45 32 29 23 3 3 0 0 0 3 6 6 10 6 19 45 45 48 48 42 39
0 0 0 0 0 0 3 3 6 10 32 39 52 65 65 71 65 61 68 71 77 77 77 71 58 65 58 55 39 26 16 10 3 0 0 0 0 3 6 3 3 6 10 16 19 23 29 29 29
0 0 0 0 0 0 0 3 10 10 26 42 35 52 52 48 55 48 58 77 74 77 74 74 61 65 58 42 29 23 13 13 6 0 0 0 0 0 0 3 3 3 3 10 10 13 16 13 16
0 0 0 0 0 0 0 0 10 16 16 19 26 35 35 32 39 39 55 55 71 71 71 68 58 58 55 32 26 23 16 13 3 0 0 0 0 0 0 0 3 3 3 3 6 16 13 13 10
0 0 0 0 0 0 0 0 3 19 23 16 23 29 29 26 29 35 35 45 55 55 58 61 52 48 52 32 23 16 13 10 6 0 0 0 0 0 0 0 0 0 0 0 3 0 6 0 3
0 0 0 0 0 0 0 0 0 16 26 16 13 16 23 29 29 29 32 35 39 45 45 45 48 45 45 32 26 26 13 6 3 0 0 0 0 0 0 0 0 0 3 3 3 3 3 0 0
0 0 0 0 0 0 0 0 6 10 10 13 6 6 16 23 29 29 29 32 39 45 35 42 58 55 48 29 23 19 16 10 3 0 0 0 0 0 0 0 0 0 0 0 0 0 0 0 0
0 0 0 0 0 0 0 0 3 0 6 13 10 13 10 13 16 26 32 32 45 39 35 42 55 48 48 42 23 10 13 6 3 3 0 3 0 0 0 0 0 0 0 0 0 0 0 0 0
0 0 0 0 0 0 0 0 0 0 0 10 10 10 10 16 19 19 26 39 45 39 42 39 48 52 55 45 32 42 13 10 0 3 10 13 0 0 0 0 0 0 0 0 0 0 0 0 0
0 0 0 0 0 0 0 0 0 0 0 3 3 10 13 13 26 29 32 35 39 48 48 29 48 68 52 42 29 52 42 35 19 35 13 13 6 6 0 0 3 0 0 0 0 0 0 0 0
0 0 0 0 0 0 0 0 0 0 0 0 3 10 13 13 26 35 32 42 55 52 48 35 55 58 58 52 45 55 68 71 68 45 29 13 3 3 6 0 3 3 0 0 0 0 0 0 0
0 0 0 0 0 0 0 0 0 0 0 3 0 3 16 26 32 32 39 52 58 55 58 55 71 71 71 68 68 71 74 61 42 58 29 23 6 3 3 6 6 3 0 0 0 0 0 0 0
0 0 0 0 0 0 0 0 0 0 0 0 0 6 16 13 29 29 42 55 61 61 61 71 84 87 84 84 87 87 74 74 61 61 68 23 29 6 6 6 3 3 0 3 0 0 0 0 0
0 0 0 0 0 0 0 0 0 0 3 3 3 3 13 16 16 19 32 42 48 61 65 68 81 87 87 87 90 81 87 87 77 74 71 52 32 19 10 6 3 3 3 6 3 0 0 0 0
0 0 0 0 0 0 0 0 0 10 6 3 0 6 6 10 10 23 32 35 42 45 58 74 81 90 90 90 87 84 87 87 87 81 77 77 65 45 32 16 3 3 3 3 3 0 0 0 0
0 0 0 0 0 0 0 0 0 10 10 10 3 0 10 13 13 23 23 29 39 45 55 61 71 84 90 87 87 90 90 94 94 81 81 81 71 55 39 19 10 3 3 3 3 0 0 0 0

GEFSSGP_con_cape1000_072.txt.gz
Probability
77 68 87 97 97 90 45 6 0 0 0 3 6 10 10 55 45 45 48 84 97 84 100 100 100 100 100 100 100 100 100 100 100 100 100 100 100 100 100 94 90 90 90 94 94 94 100 100 94
52 77 74 68 65 23 0 0 6 10 10 10 3 13 35 71 71 48 68 90 84 81 87 97 100 100 100 100 100 100 100 100 100 100 100 100 94 94 94 90 87 87 84 90 94 94 94 97 97
42 61 32 39 26 3 0 3 10 10 3 3 13 29 52 87 81 84 90 87 81 77 84 100 100 100 100 100 100 100 100 100 100 97 97 94 94 94 90 90 94 84 81 81 87 90 90 97 97
52 45 32 13 0 0 0 3 10 6 6 6 26 52 87 94 94 87 94 90 81 84 90 100 100 100 100 100 100 100 100 100 100 97 97 94 90 97 94 90 81 84 81 84 84 81 84 84 100
19 16 19 0 0 0 0 0 6 10 6 16 35 77 100 94 97 94 94 97 84 90 81 97 100 100 100 100 100 100 100 100 100 100 97 97 100 90 94 84 84 87 81 81 90 81 81 84 100
6 6 0 0 0 0 0 0 6 10 16 23 32 71 97 94 97 94 100 94 94 97 84 100 100 100 100 100 100 100 97 97 97 97 97 97 94 94 94 84 90 90 94 90 87 90 77 77 97
3 3 0 0 0 0 0 3 3 13 10 32 39 68 94 90 87 90 97 100 100 97 90 90 97 100 100 100 100 97 97 97 97 97 97 97 97 97 97 97 94 90 94 90 94 90 90 90 94
0 0 0 0 0 0 0 3 3 13 23 35 39 65 94 90 90 87 97 100 100 97 94 90 94 97 94 97 100 97 97 100 100 100 94 94 97 97 94 94 90 90 90 94 97 97 94 94 90
0 0 0 0 0 0 0 0 0 6 19 35 55 74 81 87 94 94 90 100 100 100 97 90 97 100 100 97 97 100 100 100 97 97 87 87 94 90 97 94 94 90 90 87 87 90 94 87 90
0 0 0 0 0 0 0 0 0 6 10 39 61 84 87 90 90 94 97 94 94 94 97 97 97 97 97 100 100 100 97 97 97 87 77 84 84 84 77 90 90 84 84 77 74 87 84 84 87
0 0 0 0 0 0 0 0 0 3 13 39 77 90 90 94 87 90 94 94 94 94 94 97 97 97 97 97 100 100 100 94 77 71 71 71 68 65 71 74 81 90 84 81 77 81 81 84 84
0 0 0 0 0 0 0 0 0 6 32 58 77 84 90 90 90 94 90 90 94 94 94 94 97 97 97 97 100 94 84 74 61 61 52 42 52 55 52 68 61 74 77 84 84 84 77 84 81
0 0 0 0 0 0 0 0 3 10 26 39 55 61 84 84 87 87 90 84 94 94 94 94 97 97 97 94 90 77 77 58 55 52 29 26 26 29 29 45 65 65 74 77 81 81 77 81 77
0 0 0 0 0 0 0 0 0 6 19 26 45 55 74 87 84 84 81 84 90 90 94 94 94 94 90 84 84 77 55 58 32 26 13 13 13 23 29 45 48 58 71 68 77 77 74 77 77
0 0 0 0 0 0 0 0 0 6 13 16 39 42 61 81 77 71 71 77 81 94 94 94 94 90 84 81 68 52 42 32 19 16 10 3 6 10 13 23 45 45 52 52 71 52 61 71 65
0 0 0 0 0 0 0 0 10 13 10 32 29 35 55 71 74 71 68 77 81 84 90 94 84 87 81 74 61 48 32 23 16 13 6 3 0 3 10 16 13 23 35 45 61 58 61 58 45
0 0 0 0 0 0 0 3 19 10 19 29 42 39 48 61 58 61 65 68 68 81 77 77 81 74 68 65 55 35 35 23 10 10 3 6 0 0 10 13 13 23 26 26 16 42 39 39 42
0 0 0 0 0 0 0 3 19 10 16 26 35 42 55 52 58 58 58 58 74 74 74 74 71 74 68 61 58 29 23 19 10 13 10 3 0 0 10 13 3 10 16 26 29 16 16 26 26
0 0 0 0 0 0 0 3 10 13 13 19 45 42 45 55 48 48 48 52 55 65 74 74 65 61 68 68 45 39 23 26 13 13 6 3 0 0 3 6 3 6 13 10 10 13 13 13 13
0 0 0 0 0 0 0 3 6 6 13 16 39 39 42 55 42 42 42 39 48 68 71 68 74 61 71 74 68 68 48 19 23 16 13 3 0 0 0 3 13 10 6 6 6 6 13 10 6
0 0 0 0 0 0 0 3 13 6 0 16 19 39 35 42 42 35 35 39 48 55 65 58 68 74 74 74 61 48 58 42 29 32 26 10 0 0 3 3 3 3 10 13 3 6 6 10 10
0 0 0 0 0 0 0 0 16 13 3 10 16 26 29 29 39 39 42 42 39 52 55 65 65 74 77 74 65 45 48 48 52 48 45 26 6 6 3 0 0 3 6 6 3 3 3 3 10
0 0 0 0 0 0 0 0 19 6 10 3 10 16 19 26 26 42 39 42 42 39 45 55 74 77 84 81 77 71 55 61 61 61 65 55 32 13 6 6 6 6 3 6 3 3 0 3 6
0 0 0 0 0 0 0 0 6 0 3 6 10 16 32 29 26 39 39 42 35 39 48 58 68 74 84 84 81 77 71 68 58 68 68 65 58 42 19 10 16 10 10 3 3 0 0 0 0
0 0 3 10 3 0 0 0 3 0 0 0 6 13 23 35 35 26 32 32 39 45 45 58 65 81 87 90 87 77 81 81 81 81 71 58 58 42 52 13 26 19 13 6 6 6 3 3 0
0 0 0 0 0 0 0 0 3 0 0 0 3 19 16 39 39 29 32 39 42 42 45 55 74 84 87 87 90 84 90 77 77 90 87 65 65 52 58 42 45 26 16 6 10 6 6 3 0
0 0 0 0 0 0 0 0 0 0 0 0 3 10 19 16 39 39 35 52 48 48 52 61 84 81 87 84 94 94 97 90 87 94 87 81 68 48 52 45 45 35 29 13 23 16 19 10 6
0 0 0 0 3 0 0 0 0 0 0 0 3 10 19 29 29 39 45 58 58 58 71 77 90 87 94 90 90 74 97 97 97 97 90 90 84 52 42 45 39 48 48 35 26 19 19 16 19
0 0 0 0 0 0 0 0 0 6 3 6 10 13 26 19 26 35 52 58 61 65 77 84 94 94 94 90 90 87 90 94 94 94 94 97 90 84 74 48 52 55 48 52 55 23 29 29 23
0 0 6 13 35 0 0 0 0 0 0 0 3 6 16 26 29 39 48 55 61 65 71 84 94 94 90 90 94 90 97 97 94 94 94 94 97 90 87 77 65 61 45 58 58 42 32 32 29

GEFSSGP_con_cape1000_078.txt.gz
Probability
84 65 35 42 58 39 23 13 3 3 3 10 26 39 3 13 3 6 29 55 77 94 100 100 100 100 100 100 100 100 100 100 100 100 100 100 100 100 94 90 94 94 90 84 94 94 97 97 97
32 32 29 42 42 3 0 0 3 6 10 19 48 55 52 42 48 48 52 74 81 97 100 100 100 100 100 100 100 100 100 100 100 100 100 100 100 97 90 87 84 90 90 87 90 90 94 94 97
3 10 35 13 13 3 0 0 0 10 19 42 55 65 61 45 42 58 58 71 87 100 100 100 100 100 100 100 100 100 100 100 100 100 100 100 100 94 90 84 84 87 87 87 84 87 87 94 97
3 3 10 6 0 0 0 3 3 6 32 52 58 71 61 45 52 65 61 71 77 94 100 100 100 100 100 100 100 100 100 100 100 100 100 100 100 94 90 87 87 87 87 87 87 81 84 87 97
3 6 0 3 0 3 0 6 6 19 42 58 65 65 55 48 58 71 74 71 84 94 100 100 100 100 100 100 100 100 100 100 100 100 100 97 94 94 87 87 84 84 87 87 77 74 74 81 94
10 0 0 0 0 3 3 3 6 35 39 68 74 58 61 55 61 74 74 68 81 94 97 100 100 100 100 100 100 100 100 100 100 100 100 100 97 97 94 90 87 87 81 84 81 77 65 74 90
6 0 0 0 0 3 3 0 16 26 39 48 68 61 71 55 61 71 74 61 77 94 97 100 100 100 100 100 100 100 100 100 100 100 100 97 94 97 97 100 100 100 94 90 87 71 58 74 90
0 0 0 0 0 3 3 0 10 29 39 48 61 61 58 61 61 68 61 61 65 87 97 100 100 100 100 100 100 100 100 100 100 100 97 97 97 97 97 100 100 97 100 97 90 81 84 90 100
0 0 0 0 0 3 3 0 10 32 45 52 58 61 55 65 61 61 61 61 65 74 94 94 94 94 97 97 100 100 100 100 100 97 94 94 77 74 90 94 94 94 90 94 87 94 100 94 94
0 0 0 0 0 0 0 0 6 29 39 55 52 58 65 68 65 68 61 61 71 71 84 84 87 90 94 97 94 90 94 87 77 68 65 61 32 35 77 87 90 90 90 84 81 87 90 81 68
0 0 0 0 0 0 0 0 10 32 39 48 55 55 61 55 58 71 65 58 68 61 71 81 84 87 90 94 94 87 74 65 58 58 48 26 16 16 39 35 68 68 68 61 71 74 58 58 35
0 0 0 0 0 0 0 3 10 16 32 52 48 52 55 55 55 61 71 58 61 61 71 74 77 74 74 74 77 65 52 45 39 26 23 13 10 10 10 10 16 16 19 26 42 45 45 35 23
0 0 0 0 0 0 0 0 6 19 39 48 42 48 45 48 48 55 65 61 55 61 65 68 61 65 55 61 55 55 45 35 13 13 16 10 6 3 6 3 3 6 3 6 13 23 29 16 19
0 0 0 0 0 0 0 3 6 23 42 42 45 45 45 45 42 58 52 52 52 58 65 61 48 45 42 42 35 35 32 13 10 16 6 6 3 0 0 0 0 0 0 0 6 6 3 3 6
0 0 0 0 0 0 0 0 6 19 35 45 48 45 29 32 35 32 35 42 45 48 52 48 48 42 32 29 29 19 13 10 10 0 0 0 0 0 0 0 0 0 0 0 0 0 0 0 0
0 0 0 0 0 0 0 0 6 19 35 29 35 48 39 35 32 29 32 39 39 45 42 39 45 35 26 26 16 13 10 3 3 0 0 0 0 0 0 0 0 0 0 0 0 0 0 0 0
0 0 0 0 0 0 0 0 10 16 26 26 26 32 35 29 29 23 23 23 26 26 29 32 35 29 23 16 13 10 0 0 0 0 0 0 0 0 0 0 0 0 0 0 0 0 0 0 0
0 0 0 0 0 0 0 3 10 13 19 16 16 19 16 26 19 23 16 16 23 19 29 32 29 16 19 3 3 0 0 0 0 0 0 0 0 0 0 0 0 0 0 0 0 0 0 0 0
0 0 0 0 0 0 0 0 3 13 10 13 13 19 23 26 16 19 23 19 23 19 19 26 32 16 6 3 3 0 0 0 0 0 0 0 0 0 0 0 0 0 0 0 0 0 0 0 0
0 0 0 0 0 0 0 0 3 6 6 6 10 19 19 23 23 19 16 19 19 13 19 26 23 16 6 3 3 0 0 0 0 0 0 0 0 0 0 0 0 0 0 0 0 0 0 0 0
0 0 0 0 0 0 0 0 3 3 6 3 6 16 13 19 23 23 13 16 19 23 26 23 19 16 3 3 3 0 0 0 0 0 0 0 0 0 0 0 0 0 0 0 0 0 0 0 0
0 0 0 0 0 0 0 0 0 3 6 3 3 6 10 10 16 13 13 16 16 26 23 16 16 6 3 3 3 0 0 0 0 0 0 0 0 0 0 0 0 0 0 0 0 0 0 0 0
0 0 0 0 0 0 0 0 0 0 3 3 6 6 10 10 16 16 13 16 16 16 13 10 13 10 6 6 6 0 0 0 0 0 0 0 0 0 0 0 0 0 0 0 0 0 0 0 0
0 0 0 0 0 0 0 0 0 0 0 3 3 3 6 10 16 16 13 13 13 13 23 13 16 10 6 6 3 0 0 0 0 0 0 0 0 0 0 0 0 0 0 0 0 0 0 0 0
0 0 0 0 0 0 0 0 0 0 0 0 3 3 6 13 10 19 16 16 16 16 23 19 23 16 10 10 3 0 3 0 0 0 0 0 0 0 0 0 0 0 0 0 0 0 0 0 0
0 0 0 0 0 0 0 0 0 0 0 0 0 3 6 10 10 10 13 16 19 19 23 19 23 16 13 13 3 3 3 3 0 0 0 0 0 0 0 0 0 0 0 0 0 0 0 0 0
0 0 0 0 0 0 0 0 0 0 0 0 0 3 10 10 3 10 13 13 16 16 26 29 23 19 19 10 13 6 6 0 3 3 0 0 0 0 0 0 0 0 0 0 0 0 0 0 0
0 0 0 0 0 0 0 0 0 0 0 0 0 0 0 3 6 10 13 16 16 16 26 29 23 23 23 19 13 13 6 3 6 6 3 0 3 0 0 0 0 0 0 0 0 0 0 0 0
0 0 0 0 0 0 0 0 0 0 0 0 0 0 0 3 3 6 13 16 19 19 26 26 26 23 23 16 13 10 13 10 10 10 13 6 6 3 0 0 0 0 0 0 0 0 0 0 0
0 0 0 0 0 0 0 0 0 0 0 0 0 0 3 0 3 10 16 13 16 23 29 29 23 29 26 23 16 10 13 13 10 10 16 13 10 6 0 0 0 0 0 0 0 0 0 0 0

GEFSSGP_con_cape1000_084.txt.gz
Probability
71 71 45 16 10 3 3 0 6 0 3 3 3 3 0 0 0 0 13 13 45 90 100 100 100 100 100 100 100 100 100 100 100 100 100 100 100 100 97 94 90 87 87 87 90 87 77 84 84
52 42 19 13 0 0 0 0 0 0 10 16 29 32 19 32 35 35 42 52 61 87 97 97 100 100 100 100 100 100 100 100 100 100 100 100 100 100 94 87 87 87 90 94 90 87 81 84 90
29 26 3 3 0 0 0 0 0 10 26 48 55 52 52 45 55 48 58 61 74 90 97 97 100 100 100 100 100 100 100 100 100 100 100 100 97 97 87 87 87 90 84 87 87 84 84 87 94
6 3 0 0 0 0 0 0 10 26 32 48 58 48 42 58 55 52 68 71 84 97 97 97 97 100 100 100 100 100 100 100 100 100 100 100 97 97 90 90 87 84 87 81 77 81 84 90 97
3 0 0 0 0 0 0 0 19 29 32 58 55 58 45 55 61 61 68 81 90 97 97 97 97 100 100 100 100 100 100 100 100 100 100 100 97 94 87 84 90 81 87 81 74 77 81 90 97
0 0 0 0 0 0 0 13 19 29 48 65 61 61 55 61 71 71 81 87 97 97 97 97 97 100 100 100 100 100 100 100 100 100 100 97 97 97 90 87 84 84 74 74 74 71 74 90 94
0 0 0 0 0 0 3 10 23 32 45 65 55 58 48 65 65 77 81 90 97 97 97 97 97 97 100 100 100 100 100 100 100 100 100 97 97 97 94 94 87 81 74 71 65 61 65 81 94
0 0 0 0 0 0 3 10 35 29 42 61 61 45 48 65 58 65 74 90 94 97 97 97 97 97 100 100 100 100 100 100 100 100 100 100 100 90 94 97 97 90 87 77 65 61 68 87 97
0 0 0 0 0 3 0 6 32 45 45 55 61 55 55 61 55 58 74 84 87 90 94 97 97 97 100 100 100 100 100 100 100 100 100 97 87 77 84 94 87 90 81 74 68 68 87 90 94
0 0 0 0 0 0 0 6 32 48 48 52 58 65 68 71 58 58 61 74 77 87 87 94 94 94 97 97 100 97 97 90 81 74 74 65 48 39 68 81 90 87 84 81 81 81 87 68 45
0 0 0 0 0 0 0 6 26 42 45 58 58 65 74 68 61 52 55 55 74 81 84 87 87 87 94 90 94 81 74 65 61 61 61 39 29 19 29 35 45 45 65 58 65 61 55 45 32
0 0 0 0 0 0 0 6 19 26 29 32 55 65 65 65 55 48 48 52 55 71 74 84 84 81 81 84 77 71 52 48 45 39 35 19 10 13 10 10 23 23 16 23 32 42 42 35 23
0 0 0 0 0 0 3 6 6 13 19 42 58 58 58 61 65 52 52 45 55 61 65 74 81 81 65 65 65 52 48 45 32 29 16 10 10 3 3 13 3 10 10 10 10 19 26 19 16
0 0 0 0 0 0 3 3 3 19 26 52 61 61 55 55 58 48 35 32 39 52 55 55 65 52 39 52 48 45 35 35 16 10 10 10 6 0 0 0 0 0 0 0 3 3 10 10 13
0 0 0 0 0 0 0 0 0 19 35 52 45 48 42 39 39 39 29 19 16 23 32 42 42 32 29 35 39 32 29 10 13 10 6 6 3 0 0 0 0 0 0 0 0 0 0 0 6
0 0 0 0 0 0 0 0 0 29 35 42 42 45 42 35 23 23 26 13 13 19 13 23 42 26 23 26 16 10 6 10 3 3 0 0 0 0 0 0 0 0 0 0 0 0 0 0 0
0 0 0 0 0 0 0 0 6 23 26 29 29 32 32 26 19 19 19 13 10 10 6 19 23 26 16 16 13 6 0 0 0 0 0 0 0 0 0 0 0 0 0 0 0 0 0 0 0
0 0 0 0 0 0 0 0 6 16 19 19 19 19 23 26 19 19 19 16 6 6 10 16 19 16 16 13 0 0 0 0 0 0 0 0 0 0 0 0 0 0 0 0 0 0 0 0 0
0 0 0 0 0 0 0 0 0 10 10 16 13 16 16 19 13 16 13 13 13 6 6 13 10 16 6 3 0 0 0 0 0 0 0 0 0 0 0 0 0 0 0 0 0 0 0 0 0
0 0 0 0 0 0 0 0 0 3 3 10 13 13 16 13 16 13 3 13 10 6 3 3 13 6 6 3 0 0 0 0 0 0 0 0 0 0 0 0 0 0 0 0 0 0 0 0 0
0 0 0 0 0 0 0 0 0 3 3 3 3 10 10 6 10 16 6 6 10 6 3 6 6 6 0 0 0 0 0 0 0 0 0 0 0 0 0 0 0 0 0 0 0 0 0 0 0
0 0 0 0 0 0 0 0 0 3 3 3 3 3 6 6 10 6 6 6 6 6 6 6 3 3 0 0 0 0 0 0 0 0 0 0 0 0 0 0 0 0 0 0 0 0 0 0 0
0 0 0 0 0 0 0 0 0 0 0 3 3 6 6 6 6 10 6 6 6 6 6 6 3 0 0 0 0 0 0 0 0 0 0 0 0 0 0 0 0 0 0 0 0 0 0 0 0
0 0 0 0 0 0 0 0 0 0 0 0 3 6 6 6 6 6 10 10 6 6 6 6 3 0 0 0 0 0 0 0 0 0 0 0 0 0 0 0 0 0 0 0 0 0 0 0 0
0 0 0 0 0 0 0 0 0 0 0 0 0 3 6 6 6 6 10 6 6 3 3 6 6 0 0 0 0 0 0 0 0 0 0 0 0 0 0 0 0 0 0 0 0 0 0 0 0
0 0 0 0 0 0 0 0 0 0 0 0 0 3 3 6 10 6 10 6 6 6 3 6 6 0 0 0 0 0 0 0 0 0 0 0 0 0 0 0 0 0 0 0 0 0 0 0 0
0 0 0 0 0 0 0 0 0 0 0 0 0 0 3 6 6 6 3 3 3 6 6 6 3 3 0 0 0 0 0 0 0 0 0 0 0 0 0 0 0 0 0 0 0 0 0 0 0
0 0 0 0 0 0 0 0 0 0 0 0 0 0 0 0 3 3 6 6 3 3 3 3 3 3 0 0 0 0 0 0 0 0 0 0 0 0 0 0 0 0 0 0 0 0 0 0 0
0 0 0 0 0 0 0 0 0 0 0 0 0 0 0 0 0 3 3 0 3 3 3 3 3 3 3 0 0 0 0 0 0 0 0 0 0 0 0 0 0 0 0 0 0 0 0 0 0
0 0 0 0 0 0 0 0 0 0 0 0 0 0 0 0 0 0 0 0 0 3 3 6 3 3 3 0 0 0 0 0 0 0 0 0 0 0 0 0 0 0 0 0 0 0 0 0 0

GEFSSGP_con_cape1000_090.txt.gz
Probability
58 68 77 84 74 10 0 0 0 0 3 10 16 6 3 3 0 35 61 19 23 55 97 97 100 100 100 100 100 100 100 100 100 100 100 100 100 100 100 97 94 84 74 71 77 81 71 77 84
39 61 68 55 23 0 0 0 0 3 3 48 42 32 26 29 58 84 58 26 32 71 97 97 100 100 100 100 100 100 100 100 100 100 100 100 100 97 94 94 87 84 87 90 81 77 74 77 81
45 45 42 23 0 0 0 0 0 3 29 48 55 48 45 65 81 87 77 48 45 84 97 100 100 100 100 100 100 100 100 100 100 100 100 100 97 94 90 90 90 87 87 87 87 84 81 81 77
32 45 39 19 0 0 0 0 0 6 23 58 58 55 81 77 90 94 84 58 58 94 97 100 100 100 100 100 100 100 100 100 100 100 100 100 97 97 90 87 87 81 87 87 84 84 94 90 90
13 13 0 0 0 0 0 0 3 6 13 48 48 42 84 87 94 100 90 71 94 97 100 100 100 100 100 100 100 100 100 100 100 100 100 100 100 97 94 84 87 84 81 77 77 84 90 87 84
10 3 0 0 0 0 0 0 3 0 13 58 71 55 84 94 90 97 94 87 94 100 100 100 100 100 100 100 100 100 100 100 100 100 100 97 97 90 94 90 81 74 74 77 71 74 90 90 90
3 0 0 0 0 0 0 3 0 3 19 48 71 68 87 94 94 94 94 94 84 90 97 100 100 100 100 100 100 100 100 100 100 100 100 97 100 97 94 90 77 74 68 58 61 71 84 94 90
3 0 0 0 0 0 3 3 3 10 23 58 65 52 74 90 90 94 94 97 97 97 97 97 100 100 100 97 100 100 100 100 100 97 97 94 94 90 87 97 94 77 71 61 58 68 74 81 87
3 0 0 0 0 0 3 3 13 26 42 61 58 65 87 90 90 90 94 94 97 97 97 97 97 100 97 97 97 100 100 100 100 100 100 94 77 61 84 74 68 74 74 61 61 84 81 84 90
0 0 0 0 0 0 0 3 3 23 39 58 65 81 87 90 94 94 90 97 97 97 97 97 94 100 100 97 97 100 100 100 97 94 94 94 87 84 65 81 74 77 81 77 71 71 71 58 77
0 0 0 0 0 0 0 3 6 3 19 29 55 87 90 90 94 90 90 87 90 94 90 90 87 97 97 100 100 100 97 100 97 94 94 87 77 71 61 71 81 90 77 74 84 74 39 48 61
0 0 0 0 0 0 3 3 3 13 26 35 42 77 87 87 84 87 81 81 84 87 90 87 90 100 94 97 100 100 97 97 87 84 81 71 71 74 61 74 61 68 68 71 61 65 48 55 61
0 0 0 0 0 3 3 3 6 19 32 39 61 81 84 84 81 77 84 81 84 87 87 90 97 100 97 97 100 100 100 81 77 77 74 71 71 68 68 68 71 42 48 65 74 55 61 55 55
0 0 0 0 3 3 3 3 0 19 29 48 65 74 74 81 77 84 87 87 87 90 87 87 97 97 97 100 100 97 84 81 71 71 68 65 68 61 61 65 61 45 39 42 48 45 58 55 45
0 0 0 0 0 0 0 0 13 29 42 52 68 74 81 81 77 81 81 84 81 87 87 87 94 94 94 94 97 87 77 61 61 61 55 61 55 55 48 42 48 32 35 58 48 45 42 55 48
0 0 0 0 0 0 0 0 29 29 58 61 68 68 74 77 68 74 74 74 74 84 84 84 84 94 94 94 87 74 71 65 61 55 52 48 35 39 42 32 32 39 29 29 29 29 32 29 35
0 0 0 0 0 0 0 0 19 32 45 61 65 68 68 71 65 65 71 68 68 71 81 84 87 90 90 87 74 65 71 61 48 42 35 35 29 26 26 26 26 19 6 10 13 13 26 26 32
0 0 0 0 0 0 0 0 23 32 35 42 58 58 65 68 61 58 61 55 61 68 74 81 87 87 87 77 71 58 55 45 32 32 32 19 16 16 19 16 10 3 3 6 10 19 23 23 23
0 0 0 0 0 0 0 6 16 42 52 52 58 55 58 58 52 48 45 42 58 55 65 74 71 77 84 68 52 48 42 32 19 23 16 13 13 13 16 6 10 6 3 3 3 6 10 10 16
0 0 0 0 0 0 0 10 16 26 48 58 52 48 45 48 42 42 39 35 39 45 42 48 68 68 71 65 52 48 42 26 19 13 19 10 10 10 10 10 3 6 6 6 3 10 3 6 10
0 0 0 0 0 3 0 3 23 29 39 42 39 39 32 35 35 39 35 32 35 35 35 26 55 61 68 61 48 35 35 19 16 16 16 10 10 10 6 3 3 3 3 3 3 13 6 0 3
0 0 0 0 0 0 0 0 13 13 23 32 39 29 16 23 29 32 35 32 29 29 19 35 52 58 52 52 39 29 23 19 13 16 16 6 3 3 3 0 3 6 0 3 3 0 3 10 6
0 0 0 0 0 0 0 0 0 6 13 23 29 26 19 19 19 23 29 35 29 23 26 32 45 55 48 35 45 39 26 26 13 13 13 10 3 3 0 0 0 0 0 0 3 3 0 6 10
0 0 0 0 0 0 0 0 0 0 3 13 19 29 19 19 19 26 26 29 32 23 26 29 32 39 42 32 35 39 35 32 16 16 13 13 13 6 0 0 6 6 3 6 10 6 3 0 6
0 0 0 0 0 0 0 0 0 3 0 0 10 26 19 26 35 26 29 29 29 19 19 26 39 32 39 29 39 39 42 35 32 19 23 23 10 10 19 0 10 6 6 6 6 10 6 3 3
0 0 0 0 0 0 0 0 0 0 0 0 3 16 23 32 32 35 29 29 23 23 19 26 29 29 35 39 45 45 42 35 23 29 19 19 10 10 13 23 19 26 13 3 13 3 3 10 6
0 0 0 0 0 0 0 0 13 10 3 3 6 13 29 32 32 35 35 32 26 26 23 26 39 42 48 45 45 48 39 35 32 35 32 19 32 16 26 23 26 26 23 23 29 19 19 10 10
0 0 0 0 0 0 0 0 0 19 23 10 23 19 26 35 35 29 32 35 29 23 29 29 42 52 52 48 45 32 35 39 45 35 32 23 19 19 29 19 19 19 19 29 32 29 23 19 16
0 0 0 0 0 0 0 0 0 13 29 32 42 35 35 32 32 32 39 39 32 23 35 48 52 55 48 48 42 35 32 32 42 45 45 35 29 35 32 29 32 32 29 26 35 23 19 23 23
0 0 0 0 0 0 0 0 6 10 26 32 29 42 55 39 39 32 35 42 35 35 42 48 48 45 52 55 52 52 52 45 48 39 42 48 42 45 39 45 48 39 29 32 42 35 23 26 26

GEFSSGP_con_cape1000_096.txt.gz
Probability
58 52 71 84 87 77 23 0 0 0 0 0 0 0 6 3 13 29 29 65 97 97 100 100 100 100 100 100 100 100 100 100 100 100 100 100 100 97 97 94 87 90 87 81 84 74 71 71 77
23 58 55 55 52 13 0 0 0 0 0 0 0 0 6 16 23 29 48 90 97 90 97 100 100 100 100 100 100 100 100 100 100 100 100 100 100 97 94 90 90 90 90 87 87 74 81 74 77
13 42 35 29 29 3 0 0 0 0 0 0 0 3 19 35 45 61 68 87 94 90 100 100 100 100 100 100 100 100 100 100 100 100 100 100 94 94 94 94 90 87 90 94 74 71 74 74 71
35 39 19 23 6 0 0 0 0 0 0 0 0 26 61 48 58 77 61 84 97 97 100 100 100 100 100 100 100 100 100 100 100 100 100 100 94 94 87 87 90 87 84 84 74 74 81 77 84
19 19 23 16 0 0 0 0 0 0 0 0 3 35 87 74 77 81 81 90 97 100 100 100 100 100 100 100 100 100 100 100 100 100 100 100 97 94 87 84 81 84 81 77 77 84 77 77 74
10 13 10 0 0 0 0 0 0 0 3 3 10 48 94 87 87 84 84 94 94 100 100 100 100 100 100 100 100 100 100 100 100 100 100 100 97 97 90 84 81 81 77 74 77 77 81 74 68
3 3 3 0 0 0 0 0 0 0 6 6 6 48 87 90 94 87 87 94 94 97 100 100 100 100 100 100 100 100 100 100 100 100 100 100 97 94 90 84 74 71 68 71 71 74 74 77 68
3 3 3 0 0 0 0 0 0 0 3 13 3 39 90 87 90 87 90 90 97 97 94 100 100 100 100 100 100 100 100 100 100 100 100 97 97 97 100 97 87 71 58 52 58 61 55 68 68
0 0 0 0 0 0 0 0 0 0 6 13 13 48 77 84 90 90 84 94 97 90 94 97 100 100 100 97 100 100 100 100 100 100 100 100 100 94 100 94 94 81 68 65 61 58 52 68 77
0 0 0 0 0 0 0 0 0 0 10 16 42 68 81 84 90 87 90 94 87 90 90 90 94 97 100 97 100 100 100 100 100 100 100 100 100 100 100 97 97 90 84 77 77 81 74 71 74
0 0 0 0 0 0 0 0 0 3 6 23 45 74 81 84 94 90 84 87 81 87 87 81 87 94 90 94 97 100 100 100 100 97 97 97 97 97 94 90 90 94 94 94 97 94 77 84 77
0 0 0 0 0 0 0 0 0 3 6 23 29 71 81 84 84 81 77 81 81 84 84 87 90 87 90 90 94 100 100 100 100 97 94 97 97 94 90 87 90 94 94 94 90 97 87 81 77
0 0 0 0 0 0 0 0 0 3 13 16 29 55 81 81 81 84 81 81 84 81 81 84 84 84 87 87 90 94 97 100 100 94 90 81 90 81 77 81 87 87 94 94 87 90 81 81 77
0 0 0 0 0 0 0 0 0 3 16 19 35 68 81 81 81 77 77 81 81 81 74 74 81 84 87 87 90 90 97 90 84 77 77 68 77 81 74 81 77 77 77 87 84 90 90 90 94
0 0 0 0 0 0 0 0 3 16 10 16 35 61 74 81 77 74 81 84 84 81 74 71 74 87 87 87 94 90 90 81 81 77 68 68 74 71 65 77 68 71 71 74 71 77 77 87 87
0 0 0 0 0 0 0 0 16 13 19 26 42 55 74 84 74 71 81 84 77 77 74 77 74 87 87 90 90 90 77 77 77 71 65 61 68 61 71 74 74 68 74 74 77 74 71 77 81
0 0 0 0 0 0 0 0 6 6 10 26 55 58 71 77 81 74 77 81 77 74 71 77 77 81 84 87 87 87 84 84 81 68 71 65 55 52 55 65 74 61 71 74 48 68 71 68 74
0 0 0 0 0 0 0 0 13 13 10 19 58 68 74 71 77 71 77 74 77 74 71 71 77 74 74 87 94 90 81 71 68 74 61 55 55 52 48 61 55 48 61 65 68 65 61 71 71
0 0 0 0 0 0 0 0 10 23 16 29 58 61 71 65 65 77 68 61 65 68 68 65 65 71 77 84 84 87 81 84 77 58 58 52 48 39 29 42 45 35 58 52 39 45 42 55 58
0 0 0 0 0 0 0 3 6 23 13 32 48 61 65 68 65 71 71 55 61 65 68 65 65 74 71 81 84 90 87 77 61 48 42 39 32 26 13 35 39 29 55 23 29 29 48 42 35
0 0 0 0 0 0 0 3 10 23 26 26 32 52 58 61 68 71 65 61 65 71 65 58 68 68 77 84 84 81 81 74 55 39 42 35 23 19 19 16 26 35 42 42 26 32 19 39 32
0 0 0 0 0 0 0 3 23 13 26 32 48 45 55 55 48 61 52 52 58 58 52 61 58 65 71 77 71 65 58 61 55 52 45 26 23 16 13 16 23 29 32 58 32 29 35 29 39
0 0 0 0 0 0 0 0 6 10 10 26 45 45 35 35 42 48 45 48 45 48 48 55 58 58 68 68 74 68 58 61 65 55 45 39 19 10 13 16 13 19 29 32 19 29 32 48 39
0 0 0 0 0 0 0 0 10 3 3 26 35 32 32 29 32 45 39 45 48 48 48 48 55 55 65 71 68 68 68 68 65 61 45 45 42 26 16 23 23 23 29 29 19 23 23 32 45
0 0 0 0 0 0 0 0 6 0 0 13 32 39 35 26 35 45 39 42 45 48 48 45 55 58 58 61 55 58 68 58 58 55 55 48 39 45 48 19 35 35 42 29 29 35 32 23 23
0 0 0 0 0 0 0 0 6 0 3 10 23 42 29 29 35 39 35 39 42 35 48 45 48 52 61 55 55 68 61 58 48 55 55 61 52 42 45 45 42 32 26 16 42 39 29 19 16
0 0 0 0 0 0 0 0 0 6 6 10 23 39 26 29 42 42 35 39 35 39 45 39 45 58 55 55 58 58 52 55 55 58 58 55 68 39 39 52 45 39 39 39 32 42 35 42 32
0 0 0 0 3 0 0 0 6 6 3 3 26 39 35 42 42 48 42 48 39 45 52 42 61 61 55 58 55 42 48 52 55 58 58 61 61 42 42 45 48 52 48 45 45 45 45 42 45
0 0 0 0 0 0 0 3 0 13 6 10 19 45 42 42 45 55 52 48 45 39 48 48 55 58 55 48 45 45 42 55 48 52 55 61 48 48 61 61 58 52 65 58 65 52 39 29 39
0 0 0 0 0 6 3 3 0 3 6 10 10 45 52 48 48 52 58 58 52 42 48 48 52 55 55 52 52 52 61 58 52 52 55 58 61 65 65 65 65 58 52 58 55 45 45 45 29

GEFSSGP_con_cape1000_102.txt.gz
Probability
68 48 32 32 45 29 6 0 0 0 3 3 13 13 13 13 3 3 16 77 97 100 100 100 100 100 100 100 100 100 100 100 100 100 100 100 100 100 94 94 94 90 94 90 94 87 77 81 74
16 19 23 26 16 3 0 0 0 0 6 10 26 23 19 39 39 55 68 81 100 100 100 100 100 100 100 100 100 100 100 100 100 100 100 100 100 100 97 94 97 94 97 90 97 87 84 81 81
13 6 10 13 3 3 0 0 0 3 6 13 13 23 39 48 68 71 84 87 100 100 100 100 100 100 100 100 100 100 100 100 100 100 100 100 100 100 94 94 100 97 94 87 84 90 87 90 81
6 10 13 6 3 3 3 0 3 0 10 23 19 23 32 45 74 87 90 94 97 100 100 100 100 100 100 100 100 100 100 100 100 100 100 100 100 97 97 100 100 100 90 87 84 87 90 97 87
3 6 6 3 3 3 0 3 3 10 16 39 39 45 52 68 84 81 84 94 97 100 100 100 100 100 100 100 100 100 100 100 100 100 100 100 100 97 100 100 97 90 84 94 87 87 90 97 97
0 0 0 0 0 0 0 0 6 10 19 39 52 45 48 71 77 74 81 94 87 100 100 100 100 100 100 100 100 100 100 100 100 100 100 100 100 100 97 94 90 87 84 87 77 87 87 94 87
0 0 0 0 0 0 0 0 3 16 23 29 48 52 52 55 68 65 81 87 94 97 100 100 100 100 100 100 100 100 100 100 100 100 100 100 100 100 97 90 87 81 77 81 81 77 81 84 81
0 0 0 0 0 0 0 0 0 16 19 32 55 55 55 52 55 61 74 84 87 94 94 97 100 100 100 100 100 100 100 100 100 100 100 100 100 97 97 100 87 81 81 74 68 58 68 87 84
0 0 0 0 0 0 0 0 3 16 19 32 45 58 58 52 55 61 71 81 84 77 81 84 94 100 100 100 100 100 100 100 100 100 100 100 94 94 94 94 94 81 84 71 65 55 61 74 81
0 0 0 0 0 0 0 0 0 13 29 45 68 65 52 55 61 65 61 74 81 77 77 81 87 90 97 100 100 100 100 100 100 100 97 77 55 55 81 97 97 90 87 81 87 84 77 58 13
0 0 0 0 0 0 0 0 0 3 13 42 65 55 48 45 61 61 58 58 61 61 71 71 84 87 87 94 100 100 100 97 94 90 84 61 48 55 74 81 90 77 68 48 61 71 32 16 10
0 0 0 0 0 0 0 0 0 3 13 39 58 55 48 45 58 55 55 55 52 55 65 68 71 71 74 81 87 90 87 84 81 87 74 52 39 39 29 32 32 19 16 16 16 16 23 13 6
0 0 0 0 0 0 0 0 3 10 23 45 48 52 52 45 45 52 48 42 48 52 52 61 58 52 61 71 77 81 71 74 68 65 58 35 32 19 19 29 19 19 16 19 10 13 10 6 6
0 0 0 0 0 0 0 0 6 6 29 42 52 55 58 48 35 39 48 45 48 45 42 45 39 45 45 52 48 65 65 52 52 52 42 39 16 16 19 10 6 10 13 13 6 10 3 3 3
0 0 0 0 0 0 0 0 6 10 26 42 52 61 61 52 45 39 55 48 48 42 42 39 35 39 42 45 35 42 45 45 52 48 42 29 23 16 13 10 6 3 0 6 0 0 0 0 6
0 0 0 0 0 0 0 0 3 16 23 32 48 58 55 55 42 39 48 42 39 39 39 45 52 39 32 32 29 32 35 39 45 42 35 35 23 16 13 10 6 3 0 3 0 0 0 0 0
0 0 0 0 0 0 0 0 3 10 26 35 48 55 65 58 52 55 48 42 35 35 42 45 39 42 32 29 26 35 39 39 42 32 29 29 26 16 6 6 6 3 0 0 0 0 0 0 0
0 0 0 0 0 0 0 0 6 10 29 35 55 58 61 58 55 45 48 42 32 32 39 42 39 35 29 29 19 23 19 26 26 26 29 26 26 13 3 3 3 3 0 0 0 0 0 0 0
0 0 0 0 0 0 0 3 6 6 26 32 42 52 65 61 58 52 45 45 32 39 39 39 42 29 26 26 23 23 19 16 16 19 23 23 16 10 3 3 0 0 0 0 0 0 0 0 0
0 0 0 0 0 3 3 3 0 6 19 29 35 52 55 58 55 48 39 39 39 35 32 32 26 26 26 19 10 13 13 6 10 6 16 13 6 3 3 0 0 0 0 0 0 0 0 0 0
0 0 0 0 0 0 0 0 0 3 10 29 39 45 55 55 55 45 39 39 39 35 32 32 26 26 16 16 10 6 6 6 3 3 6 6 6 6 3 0 0 0 0 0 0 0 0 0 0
0 0 0 0 0 0 0 0 0 3 19 19 26 29 48 55 45 42 42 39 35 35 29 19 19 13 10 10 6 6 6 6 3 3 0 0 0 3 0 0 0 0 0 0 0 0 0 0 0
0 0 0 0 0 0 0 0 0 0 3 16 19 29 35 42 39 32 35 39 35 32 26 19 13 10 10 10 6 6 6 6 3 0 0 0 0 0 3 0 0 0 0 0 0 0 0 0 0
0 0 0 0 0 0 0 0 0 0 0 0 10 19 19 29 32 32 32 29 32 29 23 16 16 16 10 10 6 6 3 0 0 0 0 0 0 0 0 0 0 0 0 0 0 0 0 0 0
0 0 0 0 0 0 0 0 0 3 0 3 3 16 16 23 23 29 26 23 23 29 26 19 16 16 19 13 6 3 0 0 0 0 0 0 0 0 0 0 0 0 0 0 0 0 0 0 0
0 0 0 0 0 0 0 0 0 0 0 0 3 10 19 23 16 23 19 19 19 26 29 23 19 19 13 13 6 0 0 0 0 0 0 0 0 0 0 0 0 0 0 0 0 0 0 0 0
0 0 0 0 0 0 0 0 0 3 6 3 0 16 29 23 16 19 19 16 13 16 23 23 13 10 13 10 6 3 0 0 0 0 0 0 0 0 0 0 0 0 0 0 0 0 0 0 0
0 0 0 0 0 0 0 0 3 3 6 3 3 10 16 16 16 16 16 13 13 19 26 23 13 6 6 10 10 6 3 0 0 0 0 3 3 3 0 0 0 0 0 0 0 0 0 0 0
0 0 0 0 0 0 0 0 0 0 6 3 3 6 16 13 19 19 16 16 13 16 16 23 13 10 6 6 10 10 6 3 0 0 0 3 3 3 0 0 0 0 0 0 0 0 0 0 0
0 0 0 0 0 0 0 0 0 0 3 3 6 10 16 10 13 19 16 16 13 10 10 13 13 13 10 6 6 10 10 10 3 3 3 3 3 3 0 0 0 0 0 0 0 0 0 0 0

GEFSSGP_con_cape1000_108.txt.gz
Probability
42 52 29 16 10 3 0 0 0 0 3 0 0 0 0 6 0 0 3 32 68 97 100 100 100 100 100 100 100 100 100 100 100 100 100 100 100 97 97 97 97 97 90 87 81 81 74 71 74
29 35 13 6 3 0 0 0 0 3 3 0 6 13 19 35 35 45 48 65 90 100 100 100 100 100 100 100 100 100 100 100 100 100 100 100 97 97 97 97 97 100 94 90 84 77 74 65 68
19 16 3 0 0 0 0 0 0 6 13 16 13 23 32 52 74 61 71 84 100 100 100 100 100 100 100 100 100 100 100 100 100 100 100 100 97 97 97 100 100 100 87 84 87 81 71 74 74
6 6 0 0 0 3 3 0 3 6 6 16 19 29 45 65 74 77 84 100 100 100 100 100 100 100 100 100 100 100 100 100 100 100 100 100 94 94 100 97 94 94 84 90 90 84 74 77 74
3 0 0 0 0 0 3 0 6 13 6 19 26 45 55 77 81 87 90 100 100 100 100 100 100 100 100 100 100 100 100 100 100 100 100 100 97 97 97 100 97 94 87 90 90 81 90 84 77
0 0 0 0 0 0 0 0 6 10 26 29 35 58 58 84 90 94 90 100 100 100 100 100 100 100 100 100 100 100 100 100 100 100 100 100 100 97 97 97 94 87 84 84 90 90 81 77 81
0 0 0 0 0 0 0 0 10 10 29 39 48 61 55 81 84 94 90 94 100 100 100 100 100 100 100 100 100 100 100 100 100 100 100 100 97 94 94 97 90 84 81 87 84 90 77 87 81
0 0 0 0 0 0 0 0 6 10 19 32 55 48 48 61 81 84 87 97 97 97 97 97 97 100 100 100 100 100 100 100 100 100 100 100 97 94 90 90 87 77 74 74 71 68 74 87 84
0 0 0 0 0 0 0 0 6 10 23 42 45 52 45 68 77 84 81 90 94 94 97 97 97 97 100 100 100 100 100 100 100 100 100 100 90 87 87 87 84 81 77 71 68 71 81 84 84
0 0 0 0 0 0 0 0 6 10 23 52 58 65 58 68 74 77 71 77 81 77 81 84 94 94 97 100 100 100 100 100 100 100 97 81 65 71 84 90 90 84 81 77 81 87 77 29 39
0 0 0 0 0 0 0 0 3 10 13 39 58 61 61 65 68 61 55 55 65 68 74 74 81 90 94 94 97 97 97 94 94 87 71 45 32 52 58 58 77 55 77 45 55 45 23 13 16
0 0 0 0 0 0 0 0 6 10 10 26 42 58 52 61 55 48 48 48 45 58 68 68 68 77 81 87 94 87 90 84 77 71 52 29 23 23 23 26 42 35 19 16 19 19 13 10 6
0 0 0 0 0 0 0 3 6 10 19 42 42 55 52 61 58 55 45 39 42 52 55 61 65 65 58 71 77 81 71 68 52 52 48 26 19 19 16 16 13 6 6 6 6 6 13 3 3
0 0 0 0 0 0 0 3 3 13 26 35 42 42 52 58 55 39 35 35 39 42 48 55 58 52 52 48 58 58 55 48 39 39 35 26 13 13 10 10 3 3 3 6 6 6 3 3 3
0 0 0 0 0 0 0 0 0 6 26 35 42 45 42 52 45 42 35 32 23 32 48 52 52 48 39 42 39 45 39 35 29 26 26 23 10 6 6 6 3 3 3 3 3 0 0 0 3
0 0 0 0 0 0 0 0 0 23 35 39 39 42 45 32 39 39 29 26 19 29 35 52 52 35 29 23 19 23 29 23 19 13 19 26 13 6 3 3 3 3 3 3 0 0 0 0 0
0 0 0 0 0 0 0 0 0 26 35 42 42 48 35 35 26 26 29 23 16 23 26 39 32 29 23 19 10 10 10 16 13 10 13 16 16 10 3 0 0 0 0 0 0 0 0 0 0
0 0 0 0 0 0 0 0 0 16 32 35 35 45 48 29 26 19 23 19 19 13 19 29 23 19 16 13 10 10 10 10 6 16 16 13 16 16 0 0 0 0 0 0 0 0 0 0 0
0 0 0 0 0 0 0 0 0 6 19 26 35 39 42 39 23 19 19 16 16 13 19 19 16 16 13 10 10 10 10 3 3 10 10 13 16 13 0 3 0 0 0 0 0 0 0 0 0
0 0 0 0 0 0 0 0 3 6 16 23 35 35 45 35 42 26 23 13 16 19 16 13 10 6 6 10 6 6 6 3 3 6 6 13 10 6 0 0 0 0 0 0 0 0 0 0 0
0 0 0 0 0 0 0 0 0 0 3 16 23 26 42 42 45 29 26 19 19 13 16 10 13 10 6 3 6 6 3 3 3 3 6 6 3 0 0 0 0 0 0 0 0 0 0 0 0
0 0 0 0 0 0 0 0 0 0 3 6 10 26 29 42 35 32 23 23 23 13 16 10 10 10 3 3 3 6 6 6 3 3 3 3 0 0 0 0 0 0 0 0 0 0 0 0 0
0 0 0 0 0 0 0 0 0 0 3 6 16 26 29 32 19 29 26 26 26 13 16 10 6 10 3 3 6 6 6 6 3 3 3 0 0 0 0 0 0 0 0 0 0 0 0 0 0
0 0 0 0 0 0 0 0 0 0 0 0 10 16 26 23 19 16 23 23 23 16 16 13 10 10 3 3 3 3 3 3 3 3 3 0 0 0 0 0 0 0 0 0 0 0 0 0 0
0 0 0 0 0 0 0 0 0 0 0 0 6 13 23 29 23 23 23 19 19 13 10 10 6 3 3 3 3 0 3 3 3 3 3 0 0 0 0 0 0 0 0 0 0 0 0 0 0
0 0 0 0 0 0 0 0 0 0 0 0 0 6 19 23 26 26 26 19 16 13 13 13 10 6 3 3 3 0 3 0 0 3 3 0 0 0 0 0 0 0 0 0 0 0 0 0 0
0 0 0 0 0 0 0 0 0 0 0 0 3 10 16 16 13 13 16 16 10 10 10 10 10 6 6 6 3 0 0 0 0 0 0 0 0 0 0 0 0 0 0 0 0 0 0 0 0
0 0 0 0 0 0 0 0 0 0 3 3 6 6 6 10 13 13 10 13 13 10 10 10 6 10 6 6 6 6 0 0 0 0 0 0 0 0 0 0 0 0 0 0 0 0 0 0 0
0 0 0 0 0 0 0 0 0 0 0 3 3 6 13 13 10 10 10 13 13 6 6 6 6 10 3 6 6 6 6 0 0 0 0 0 0 0 0 0 0 0 0 0 0 0 0 0 0
0 0 0 0 0 0 0 0 0 0 0 3 3 0 6 3 10 13 10 3 3 3 3 3 6 3 6 3 3 3 6 3 0 0 0 0 0 0 0 0 0 0 0 0 0 0 0 0 0

GEFSSGP_con_cape1000_114.txt.gz
Probability
32 48 65 68 71 6 0 0 0 0 0 0 3 0 0 6 6 32 61 32 45 77 94 100 100 100 100 100 100 100 100 100 100 100 100 100 97 97 97 97 94 94 84 84 74 74 81 74 81
29 48 58 52 6 0 0 0 0 0 0 3 3 10 10 16 58 81 77 61 68 81 97 97 100 100 100 100 100 100 100 100 100 100 100 97 97 97 97 97 90 87 84 87 84 74 71 68 81
39 35 32 10 0 0 0 0 0 3 10 3 6 13 16 55 77 84 84 77 74 90 97 100 100 100 100 100 100 100 100 100 100 100 100 97 97 97 100 94 90 90 87 77 84 74 71 71 74
16 26 16 3 0 0 0 0 0 6 13 10 6 16 65 81 87 90 84 84 87 94 94 100 100 100 100 100 100 100 100 100 100 100 97 97 97 100 97 97 97 81 84 81 81 74 71 71 77
19 19 6 0 0 0 0 0 3 3 10 3 6 16 84 94 90 90 87 87 94 90 97 100 100 100 100 100 100 100 100 100 100 100 97 97 97 100 97 87 87 81 84 84 77 84 74 84 81
3 0 0 0 0 0 0 0 3 0 13 16 19 26 90 94 94 94 90 90 90 90 100 100 100 100 100 100 100 100 100 100 100 100 100 100 97 100 94 87 90 90 84 84 74 81 87 81 77
3 0 0 0 0 0 0 3 3 3 10 23 35 39 94 100 97 97 97 97 94 97 100 100 100 100 100 100 100 100 100 100 100 100 100 100 97 97 97 94 87 87 81 87 84 81 84 84 77
0 0 0 0 0 0 0 3 3 3 26 32 39 39 90 100 97 100 97 97 97 100 100 97 97 97 100 100 100 100 100 100 100 100 97 100 94 90 87 94 84 81 81 87 90 81 74 71 81
0 0 0 0 0 0 0 0 6 10 29 45 58 81 90 100 97 100 97 100 100 100 97 97 97 94 94 97 97 100 100 100 100 100 94 100 97 90 84 77 74 74 77 74 94 87 84 71 71
0 0 0 0 0 0 0 0 6 10 32 48 74 94 97 90 94 97 97 97 100 97 97 94 90 94 90 90 100 100 100 100 100 100 94 94 97 94 74 81 77 81 87 81 87 87 74 61 52
0 0 0 0 0 0 0 0 3 3 10 26 61 90 94 90 94 97 94 94 94 90 90 94 94 94 90 100 100 100 100 100 100 100 100 100 97 90 84 94 100 100 90 87 90 65 42 45 68
0 0 0 0 0 0 0 3 3 3 13 29 58 87 94 94 87 97 90 87 94 87 87 84 94 94 94 100 97 100 100 100 100 100 97 97 94 94 87 97 94 90 90 100 68 84 68 61 52
0 0 0 0 0 0 0 0 6 16 23 45 58 84 87 84 84 84 90 90 87 87 84 84 90 90 90 97 97 90 97 94 94 97 97 97 84 84 77 90 97 74 81 87 84 61 77 77 65
0 0 0 0 0 0 0 0 10 26 45 58 74 84 81 81 81 84 87 87 77 77 84 87 84 90 90 97 97 97 90 97 87 90 94 87 77 81 81 90 94 74 68 61 65 58 74 65 58
0 0 0 0 0 0 0 0 6 29 48 61 77 81 74 77 81 87 81 84 84 81 84 87 77 81 84 90 90 94 90 81 84 94 94 90 81 90 87 68 90 65 68 90 77 68 55 61 52
0 0 0 0 0 0 0 3 23 42 52 61 71 81 77 84 77 81 81 84 84 87 84 81 68 74 74 84 87 90 90 77 84 90 94 90 81 87 90 77 55 71 61 48 68 52 42 39 45
0 0 0 0 0 0 0 3 19 42 55 52 65 71 81 84 77 74 74 84 84 87 87 74 71 74 71 74 87 87 94 90 90 94 90 94 84 84 77 81 81 74 55 39 29 42 29 35 48
0 0 0 0 0 0 0 0 13 32 45 55 58 71 81 84 77 74 71 81 77 77 71 68 61 68 74 74 84 84 81 90 90 87 84 81 84 77 74 71 84 52 45 48 45 55 61 45 52
0 0 0 0 0 0 0 0 6 26 48 65 65 74 77 81 81 74 74 77 68 71 65 65 65 71 71 74 71 74 68 77 74 81 71 74 68 68 71 52 68 55 45 39 26 35 39 42 35
0 0 0 0 0 0 0 6 10 29 48 61 71 74 77 84 77 77 84 71 58 65 65 65 68 65 65 61 68 71 68 61 68 65 68 71 65 61 58 65 52 42 52 48 42 42 35 35 35
0 0 0 0 0 0 0 3 13 26 29 45 61 74 74 71 74 71 74 61 58 61 68 61 65 61 52 55 61 68 68 61 58 61 61 68 58 55 55 55 45 42 29 39 48 48 42 35 35
0 0 0 0 0 0 0 0 3 10 29 39 48 68 81 77 74 71 71 65 55 61 61 68 58 58 55 45 42 42 45 48 48 55 52 55 55 52 55 52 58 45 29 48 32 23 32 42 39
0 0 0 0 0 0 0 0 0 6 10 29 52 61 74 74 74 71 65 58 52 45 48 52 58 48 48 45 45 45 35 39 42 48 48 52 45 48 42 55 52 39 32 32 32 45 35 26 29
0 0 0 0 0 0 0 0 0 3 10 26 45 61 68 74 68 68 65 55 48 45 52 48 52 52 48 45 39 42 39 35 35 42 42 52 48 42 45 42 42 39 32 35 39 42 39 32 32
0 0 0 0 0 0 0 0 0 0 10 19 39 65 65 68 61 61 58 61 52 48 42 52 48 48 45 39 35 42 42 55 45 42 42 42 35 29 42 29 48 35 35 42 35 42 32 29 35
0 0 0 0 0 0 0 0 0 6 23 32 42 58 68 68 68 61 61 61 58 55 55 58 58 52 39 42 48 52 52 39 39 45 42 42 35 26 32 32 35 29 19 19 32 16 19 19 19
0 0 0 0 0 0 0 0 3 13 29 35 42 61 71 71 74 71 68 61 61 58 52 52 52 52 48 48 45 48 48 48 42 42 39 39 42 29 32 26 29 19 23 19 29 13 23 26 23
0 0 0 0 0 0 0 0 0 13 26 45 55 58 71 77 68 68 74 58 58 55 48 52 48 48 45 48 45 39 48 55 48 32 32 32 29 26 23 23 16 19 23 23 19 23 26 23 26
0 0 0 0 0 0 0 0 0 10 39 35 55 58 71 68 71 71 68 65 52 52 48 48 48 48 48 48 45 39 48 45 39 35 32 35 26 32 19 29 26 13 19 16 26 13 13 13 19
0 0 0 0 0 0 0 0 3 19 32 39 45 61 74 81 61 71 65 61 58 52 48 45 48 48 52 48 48 52 45 39 35 29 23 35 42 32 13 16 23 19 13 10 10 6 6 6 13

GEFSSGP_con_cape1000_120.txt.gz
Probability
23 35 55 74 74 61 3 0 0 0 0 0 0 3 10 13 10 23 32 65 87 84 90 100 100 100 100 100 100 100 100 100 100 100 97 94 97 94 94 90 87 84 81 74 74 71 74 81 74
19 45 52 61 55 6 0 0 0 0 0 0 3 6 10 13 13 32 55 81 87 84 90 100 100 100 100 100 100 100 100 100 100 100 97 97 97 97 94 90 84 74 71 81 77 77 71 74 77
23 48 45 52 29 0 0 0 0 0 0 3 3 6 10 23 35 52 77 87 94 90 100 100 100 100 100 100 100 100 100 100 100 97 97 97 97 97 94 90 87 84 84 77 84 74 65 74 84
39 35 45 13 3 0 0 0 0 0 0 0 10 26 32 45 42 68 77 84 94 97 100 100 100 100 100 100 100 100 100 100 100 97 97 97 97 97 87 94 94 84 84 81 81 81 77 77 71
13 19 13 3 0 0 0 0 0 0 0 10 19 74 74 58 68 68 81 90 97 100 100 100 100 100 100 100 100 100 100 100 100 97 97 97 97 100 94 97 90 87 84 84 81 84 81 77 71
10 10 6 0 0 0 0 0 0 3 3 10 29 77 87 81 81 68 81 87 97 100 100 100 100 100 100 100 100 100 100 100 100 97 97 97 100 97 90 90 84 90 90 84 87 90 77 77 74
10 3 0 0 0 0 0 0 0 3 6 10 26 74 84 87 84 81 90 94 97 100 100 100 100 100 100 100 100 100 100 100 100 97 97 100 100 97 84 90 94 84 90 84 84 84 84 71 68
3 3 0 0 0 0 0 0 3 6 6 10 10 77 94 87 84 81 94 94 97 97 100 100 100 100 100 100 100 100 100 100 100 100 97 100 100 94 87 97 90 84 87 84 87 81 81 74 74
0 0 0 0 0 0 0 0 3 6 6 16 35 74 90 90 90 87 87 87 97 97 94 90 94 97 94 94 97 100 100 100 100 100 100 100 100 97 97 97 87 77 81 84 84 84 77 84 81
0 0 0 0 0 0 0 0 6 3 13 39 71 81 87 87 94 94 87 87 87 94 90 97 90 87 87 87 94 100 100 100 100 100 100 100 100 100 97 97 94 77 84 87 87 87 84 87 52
0 0 0 0 0 0 0 0 0 6 10 29 74 87 87 84 87 94 90 90 90 94 90 87 84 90 87 87 90 94 97 100 100 100 100 100 100 100 94 90 94 97 94 97 94 90 68 61 74
0 0 0 0 0 0 0 0 6 6 10 26 65 81 87 87 94 94 94 94 90 97 90 87 77 77 84 90 87 94 97 97 100 100 100 100 100 97 97 97 94 100 100 100 94 97 94 81 77
0 0 0 0 0 0 3 3 3 3 3 29 58 74 81 90 87 94 94 90 90 97 94 87 77 77 74 84 87 87 87 94 97 100 97 97 100 97 97 100 100 100 100 100 100 100 100 90 84
0 0 0 0 0 0 3 3 3 13 13 23 58 77 81 90 87 94 94 90 94 97 90 87 81 77 77 77 84 87 90 94 97 97 97 97 94 97 97 100 100 100 100 100 100 100 100 97 94
0 0 0 0 0 0 3 3 6 16 16 23 61 74 84 87 84 90 87 97 94 94 84 84 81 77 77 77 81 87 90 97 97 97 97 97 97 97 97 100 100 100 100 100 100 97 100 94 94
0 0 0 0 0 0 3 6 6 10 16 26 52 77 87 90 84 87 90 87 81 81 84 84 77 74 77 81 81 81 90 97 97 97 97 97 97 94 94 94 94 100 100 100 100 97 94 90 90
0 0 0 0 0 0 0 3 6 10 13 32 52 81 90 97 90 87 87 81 81 81 81 81 81 77 74 77 77 81 87 97 94 94 94 94 97 94 90 90 97 90 97 100 77 97 87 90 87
0 0 0 0 0 0 0 0 10 6 13 26 58 77 94 94 90 87 84 84 84 84 81 84 81 81 68 74 74 74 74 90 94 94 94 94 97 94 94 90 90 87 97 94 94 87 90 87 81
0 0 0 0 0 0 0 0 6 6 10 32 61 87 94 97 84 87 81 81 84 84 84 87 84 81 77 77 74 65 77 81 90 94 94 87 90 94 94 87 87 90 94 90 74 77 74 71 74
0 0 0 0 0 0 0 0 3 6 10 35 61 81 90 90 84 87 84 84 87 84 84 87 84 81 74 77 68 74 81 84 94 94 90 87 84 84 74 87 84 87 90 77 68 77 77 71 71
0 0 0 0 0 0 0 0 3 10 16 29 48 61 77 90 87 87 87 87 87 84 81 74 84 81 77 71 71 65 71 71 81 90 90 81 81 81 94 84 81 87 77 77 74 71 68 58 71
0 0 0 0 0 0 0 0 6 13 19 32 45 65 74 87 84 81 84 84 87 84 81 77 74 71 71 65 61 58 52 52 77 90 94 81 81 81 81 77 84 84 77 84 74 68 65 68 74
0 0 0 0 0 0 0 0 3 6 19 35 48 61 77 84 77 74 71 84 87 84 74 77 77 68 68 61 61 65 65 71 74 84 90 87 74 71 71 77 77 81 84 84 74 84 74 74 77
0 0 0 0 0 0 0 0 3 10 10 35 42 61 74 74 77 74 74 84 81 77 74 74 74 71 74 65 58 65 77 65 68 81 74 74 74 74 71 77 77 74 81 81 71 65 68 74 71
0 0 0 0 0 0 0 0 3 0 3 23 35 58 65 84 77 74 81 77 74 74 65 68 68 71 68 65 65 71 77 81 71 68 68 68 65 74 84 68 77 68 74 68 74 81 77 65 58
0 0 0 0 0 0 0 0 0 3 3 10 35 55 65 71 68 74 77 77 74 68 65 71 68 71 68 65 77 81 87 74 61 68 55 58 65 74 81 74 61 68 68 45 58 58 52 58 58
0 0 0 0 0 0 0 0 3 3 6 6 23 45 61 68 74 77 77 77 68 68 77 77 77 77 68 71 77 77 81 71 68 71 58 58 65 65 68 58 58 58 55 55 68 61 68 65 52
0 0 0 0 3 0 0 0 6 13 10 10 26 42 55 74 71 71 77 71 68 71 81 71 68 77 74 81 68 61 68 71 68 65 61 55 55 71 58 45 58 55 58 58 61 61 65 52 45
0 0 0 0 0 0 0 0 3 16 19 13 29 42 55 68 71 74 81 81 77 68 68 74 71 74 74 77 68 68 61 65 74 74 61 61 65 58 52 52 61 55 48 42 52 52 42 45 32
0 0 0 0 0 0 0 0 0 6 10 13 19 42 65 71 77 81 81 81 81 71 65 71 65 71 71 71 68 65 68 58 61 55 55 58 61 48 55 58 58 52 52 52 45 39 39 26 23

GEFSSGP_con_cape1000_126.txt.gz
Probability
26 16 19 32 35 3 0 0 0 0 0 0 3 6 13 13 3 3 16 48 71 90 94 97 100 100 100 100 100 100 100 100 100 100 97 97 97 97 97 97 97 94 84 87 84 87 81 77 81
0 6 26 32 10 0 0 0 0 3 0 3 3 10 23 42 52 48 48 74 84 90 94 97 100 100 100 100 100 100 100 100 100 100 100 100 97 97 97 90 94 90 87 87 84 87 84 81 84
0 10 13 10 3 0 0 0 0 6 6 3 16 16 26 42 77 74 71 81 87 90 90 100 100 100 100 100 100 100 100 100 100 100 100 100 100 97 97 97 97 94 84 84 87 87 81 87 77
3 6 3 3 0 0 0 0 0 6 3 10 26 19 26 52 68 81 81 84 90 90 97 100 100 100 100 100 100 100 100 100 100 100 100 100 100 100 97 97 97 90 90 87 87 90 81 87 81
0 0 0 0 0 0 0 0 3 6 19 35 39 45 42 65 87 77 81 87 90 97 100 100 100 100 100 100 100 100 100 100 100 100 100 100 100 100 100 97 97 94 87 90 90 90 84 77 74
0 0 0 0 0 0 0 0 6 16 39 48 55 55 48 77 77 71 81 97 94 100 100 100 100 100 100 100 100 100 100 100 100 100 100 100 97 97 100 94 97 97 94 94 94 90 90 68 71
0 0 0 0 0 0 0 3 6 16 45 58 65 55 42 68 71 68 84 97 97 100 100 100 100 100 100 100 100 100 100 100 100 100 100 100 97 97 97 94 94 97 94 94 94 90 81 84 87
0 0 0 3 0 0 0 3 3 16 32 45 52 48 48 55 71 74 81 94 100 100 100 100 100 100 100 100 100 100 100 100 100 100 100 100 97 97 97 97 94 90 94 94 84 74 71 71 84
0 0 0 0 0 0 0 6 13 10 23 29 52 58 55 55 74 77 81 90 97 100 97 97 100 100 100 100 100 100 100 100 100 100 100 100 87 81 97 87 94 90 90 81 81 71 71 77 68
0 0 0 0 0 0 0 6 13 26 29 45 65 58 55 52 68 84 84 84 87 90 94 94 87 87 94 94 94 97 100 100 97 87 94 77 58 58 81 94 97 94 90 87 87 94 81 39 6
0 0 0 0 0 0 0 10 10 16 32 45 65 55 55 52 61 81 81 77 77 77 81 77 77 81 81 87 87 87 87 90 87 81 77 55 55 68 61 68 84 77 81 45 61 61 16 3 3
0 0 0 0 0 0 0 3 6 13 19 52 65 55 52 52 58 65 71 68 71 71 74 71 77 77 68 77 81 84 74 77 81 77 58 45 39 35 26 32 29 23 13 6 10 6 6 3 0
0 0 0 0 0 0 3 6 13 16 26 65 71 68 58 52 58 61 61 65 61 61 61 58 68 58 55 52 65 74 71 65 68 77 58 35 32 23 23 23 23 23 19 6 3 3 3 3 3
0 0 0 3 3 0 3 6 16 26 45 68 65 65 55 61 55 55 61 61 61 58 58 58 52 48 42 42 42 52 55 45 52 65 48 48 35 29 26 26 26 26 19 13 6 6 6 3 6
0 0 0 0 3 3 3 3 19 26 45 68 71 68 65 65 58 52 55 52 52 52 52 61 58 45 39 39 42 48 45 35 52 48 42 39 29 26 19 23 19 19 16 10 6 6 6 3 0
0 0 0 0 0 3 0 3 10 35 58 65 71 71 68 68 61 55 61 58 48 52 55 52 55 45 35 32 29 42 42 35 45 45 42 39 35 19 16 13 16 16 6 10 6 6 3 0 0
0 0 0 0 0 3 3 6 6 23 58 61 74 74 77 74 71 65 65 65 58 61 58 48 48 52 45 39 32 35 35 35 45 42 39 39 35 23 13 13 13 6 3 6 10 6 0 0 0
0 0 0 0 0 0 0 3 3 10 45 61 77 77 77 81 71 71 71 61 68 55 55 55 52 48 42 35 39 26 19 29 35 39 29 35 23 32 10 6 16 10 3 3 3 3 3 0 0
0 0 0 0 0 0 0 3 3 13 32 52 68 74 71 74 74 68 68 68 71 58 58 55 52 42 29 32 29 19 16 19 29 26 23 32 32 23 10 13 10 3 3 3 3 0 3 0 0
0 0 0 0 0 0 0 3 6 13 32 52 68 71 68 74 68 68 65 71 71 71 52 48 42 39 32 29 26 19 10 13 19 19 19 23 42 13 16 0 10 3 0 0 3 0 0 0 0
0 0 0 0 0 0 0 0 16 23 26 42 65 74 71 71 68 65 71 68 68 71 52 45 45 32 29 26 23 16 10 6 13 13 16 23 35 19 10 0 0 0 0 0 0 0 0 0 0
0 0 0 0 0 0 0 0 0 13 23 42 58 74 71 65 68 65 65 71 65 55 45 39 35 29 26 23 23 16 10 6 3 6 6 6 10 19 10 6 0 0 0 0 0 0 0 0 0
0 0 0 0 0 0 0 0 3 10 26 42 48 61 61 65 61 58 58 55 58 52 52 42 39 29 26 23 23 13 6 6 3 3 0 3 6 13 10 6 0 0 0 0 0 0 0 0 0
0 0 0 0 0 0 0 0 0 10 16 39 42 55 61 55 55 55 55 42 45 42 55 45 42 29 19 26 16 16 10 6 6 6 3 3 3 3 3 3 3 0 0 0 0 0 0 0 0
0 0 0 0 0 0 0 0 0 0 10 39 42 42 58 55 58 55 52 42 45 45 39 48 42 42 32 26 29 19 13 10 6 6 6 3 6 3 3 3 3 0 0 0 0 0 0 0 0
0 0 0 0 0 0 0 0 0 0 16 26 39 61 61 61 58 52 52 45 45 48 42 52 45 39 35 35 19 23 19 13 6 6 6 6 3 3 3 3 3 3 0 0 0 0 0 0 0
0 0 0 0 0 0 0 3 3 3 26 39 39 42 55 58 45 35 42 39 39 39 32 45 35 35 35 32 29 19 19 16 6 6 6 6 6 3 3 3 6 6 0 0 0 0 0 0 0
0 0 0 0 0 0 0 0 3 10 26 45 48 42 48 45 48 45 39 39 42 42 39 32 39 39 35 29 29 26 23 16 16 16 13 6 3 3 6 6 6 3 3 0 0 0 0 0 0
0 0 0 0 0 0 0 0 0 3 16 26 39 42 45 52 45 39 42 42 32 35 35 39 35 35 39 32 32 26 23 23 19 16 10 3 3 3 3 0 3 3 0 0 0 0 0 0 0
0 0 0 0 0 0 0 0 0 3 10 19 42 45 45 48 45 42 42 35 26 29 29 26 32 32 29 26 29 26 23 23 19 16 16 10 6 0 0 0 0 0 0 0 0 0 0 0 0

GEFSSGP_con_cape1000_132.txt.gz
Probability
32 32 13 19 0 0 0 0 0 0 0 0 0 0 0 0 0 0 6 35 68 87 94 100 100 100 100 100 100 100 100 100 100 100 100 100 97 100 100 97 90 87 87 87 77 81 81 77 84
16 13 10 3 0 0 0 0 0 0 0 0 0 10 26 48 35 29 35 65 81 94 94 100 100 100 100 100 100 100 100 100 100 100 100 100 97 97 97 97 90 90 84 90 84 77 77 77 74
6 6 0 0 0 0 0 0 0 0 3 6 13 16 32 55 48 42 45 77 84 94 94 100 100 100 100 100 100 100 100 100 100 100 100 100 100 97 97 90 90 90 87 87 87 77 81 84 81
3 3 0 0 0 0 0 0 0 3 0 16 19 23 35 61 52 65 71 81 87 90 94 100 100 100 100 100 100 100 100 100 100 100 100 100 100 100 97 97 97 90 90 90 94 84 90 87 81
0 0 0 0 0 0 0 0 0 0 10 29 23 32 58 71 74 81 84 84 87 90 94 100 100 100 100 100 100 100 100 100 100 100 100 100 100 97 94 94 97 97 90 87 87 87 84 81 84
0 0 0 0 0 0 0 0 0 3 23 26 32 39 52 68 74 81 81 84 90 90 100 100 100 100 100 100 100 100 100 100 100 100 100 100 100 100 94 94 94 97 97 90 94 94 94 77 74
0 0 0 0 0 0 0 3 6 10 26 35 45 45 61 65 74 74 77 81 94 100 100 100 100 100 100 100 100 100 100 100 100 100 100 100 100 97 94 94 90 97 97 90 90 90 87 81 81
0 0 0 0 0 0 0 3 6 16 39 45 52 48 61 61 74 84 84 87 100 100 100 97 97 97 100 100 100 100 100 100 100 100 100 100 94 94 94 94 97 90 94 90 87 84 81 81 84
0 0 0 0 0 0 0 6 3 6 45 48 45 45 65 65 77 84 84 90 97 94 94 90 90 94 100 100 100 100 100 100 100 100 100 100 77 81 87 94 94 90 94 90 77 74 84 87 90
0 0 0 0 0 0 3 3 3 19 39 48 52 65 74 71 81 74 74 84 94 94 87 90 84 87 94 97 90 90 90 90 87 87 90 52 42 58 81 90 97 90 90 90 90 90 71 39 29
0 0 0 0 0 0 3 3 6 16 29 45 55 65 74 68 74 58 48 55 71 84 87 81 77 77 84 81 84 84 81 74 71 68 52 23 26 39 42 58 71 65 71 52 55 39 16 16 16
0 0 0 0 0 3 3 3 10 10 10 32 52 68 71 71 61 55 42 55 58 65 81 77 71 65 65 61 71 58 65 68 65 58 29 23 16 16 19 35 32 19 13 13 13 10 6 10 3
0 0 0 0 3 3 6 10 6 10 23 45 61 68 71 61 58 58 42 45 58 58 61 68 65 61 61 52 65 58 45 55 45 42 23 23 16 13 13 13 13 10 0 3 6 6 6 3 3
0 0 0 0 3 6 3 6 10 16 39 45 55 52 58 55 52 61 52 55 58 52 58 61 61 48 32 39 52 52 48 42 39 32 32 10 13 13 13 13 3 0 0 0 3 3 3 3 3
0 0 0 0 3 3 6 10 13 23 39 52 52 52 52 55 48 52 52 45 48 45 48 52 45 39 29 26 26 35 32 32 32 29 23 13 10 10 13 6 6 0 6 6 3 3 3 3 3
0 0 0 0 3 3 0 6 10 23 42 52 45 48 45 52 48 48 45 45 45 48 39 48 45 39 26 19 19 19 16 16 16 23 16 16 6 3 3 10 10 3 6 6 3 3 0 0 0
0 0 0 0 0 0 3 10 10 26 45 48 48 45 39 39 45 45 42 48 48 42 35 35 39 26 16 13 16 13 13 16 13 13 13 10 10 3 6 13 10 3 0 0 3 3 0 0 0
0 0 0 0 0 0 3 6 10 26 48 48 52 52 48 45 52 45 48 48 39 29 29 29 26 16 10 6 10 10 6 6 6 6 10 6 10 10 6 6 3 0 0 0 0 0 0 0 0
0 0 0 0 0 0 3 6 13 16 35 48 45 42 48 52 48 55 55 48 45 32 26 19 19 13 6 3 13 13 10 10 10 6 3 6 13 6 6 6 0 0 0 0 0 0 0 0 0
0 0 0 0 0 0 3 10 6 13 29 42 48 45 58 55 61 58 61 55 48 39 26 16 13 6 6 3 3 6 10 13 13 6 6 6 10 10 6 0 0 0 0 0 0 0 0 0 0
0 0 0 0 0 0 3 3 10 10 19 26 42 42 52 61 65 68 65 65 42 39 26 26 13 6 6 10 3 6 6 6 6 10 6 6 13 10 10 0 0 0 0 0 0 0 0 0 0
0 0 0 0 0 0 0 0 0 10 10 16 29 32 48 58 68 68 68 61 58 39 32 26 16 13 10 10 3 3 6 10 6 6 6 3 6 10 6 3 0 0 0 0 0 0 0 0 0
0 0 0 0 0 0 0 0 0 0 13 23 32 39 48 58 68 55 52 52 52 42 35 35 26 23 16 13 10 3 3 3 3 6 3 0 0 3 6 10 0 0 0 0 0 0 0 0 0
0 0 0 0 0 0 0 0 0 0 6 10 26 45 55 52 58 48 39 42 39 35 39 29 29 23 19 19 13 10 3 3 3 3 3 3 3 3 0 3 0 0 0 0 0 0 0 0 0
0 0 0 0 0 0 0 0 0 3 0 6 23 35 55 48 48 45 39 35 35 32 39 29 26 19 16 19 16 13 13 3 3 3 3 3 3 3 3 6 0 0 0 0 0 0 0 0 0
0 0 0 0 0 0 0 0 0 0 6 10 23 45 48 48 42 35 29 29 32 29 19 23 19 13 13 13 13 13 10 10 6 6 6 6 3 3 3 3 6 3 0 0 0 0 0 0 0
0 0 0 0 0 0 0 0 0 0 23 23 35 45 48 48 42 35 32 23 23 19 23 23 23 16 13 13 13 13 6 6 10 6 6 6 3 3 3 3 6 6 3 0 0 0 0 0 0
0 0 0 0 0 0 0 0 0 0 13 26 32 45 45 45 35 35 26 19 16 19 26 26 23 19 19 10 10 10 10 10 6 0 0 0 0 0 0 0 0 3 3 6 0 0 0 0 0
0 0 0 0 0 0 0 0 0 0 0 19 32 35 32 32 39 29 26 19 19 19 19 19 13 16 16 13 10 10 6 6 6 6 0 0 0 0 0 0 0 0 3 3 0 0 0 0 0
0 0 0 0 0 0 0 0 0 0 0 13 23 35 32 29 26 29 29 26 23 19 16 13 16 13 16 10 10 6 6 10 10 6 6 3 3 0 0 0 0 0 0 0 3 0 0 0 0

GEFSSGP_con_cape1000_138.txt.gz
Probability
35 45 48 61 32 0 0 0 0 0 0 0 3 0 0 6 10 23 29 10 13 32 77 90 97 100 100 100 100 100 100 100 100 100 100 100 100 100 97 90 84 81 77 71 71 74 81 81 87
26 35 48 32 0 0 0 0 0 0 0 0 0 0 10 29 42 39 26 23 19 42 74 84 100 100 100 100 100 100 100 100 100 97 97 97 100 97 87 84 77 68 71 77 77 74 74 77 84
23 26 23 0 0 0 0 0 0 0 6 3 3 16 26 48 45 39 39 26 29 42 77 100 100 100 100 100 100 100 100 100 100 100 100 97 94 90 90 87 84 81 84 81 74 74 77 84 77
16 13 6 0 0 0 0 0 0 0 3 6 10 19 52 58 52 48 55 29 29 48 65 100 100 100 100 100 100 100 100 100 100 100 100 100 94 94 90 90 94 90 81 84 77 77 74 71 68
6 0 0 0 0 0 0 0 3 3 3 10 6 23 68 74 71 68 55 35 39 52 71 94 100 100 100 100 100 100 100 100 100 100 100 100 100 100 100 94 97 90 90 94 84 87 77 74 71
0 0 0 0 0 0 0 0 0 6 10 10 10 26 81 74 74 68 48 48 48 52 68 97 100 100 100 100 100 100 100 100 100 100 100 100 100 100 97 97 94 90 87 90 97 90 84 71 65
0 0 0 0 0 0 0 3 3 6 10 16 13 26 77 74 77 74 68 65 61 58 71 90 100 100 100 100 100 100 100 100 100 100 100 100 100 100 97 97 94 94 94 97 90 81 81 74 74
0 0 0 0 0 0 0 3 3 0 23 32 29 29 65 77 77 87 77 68 61 68 74 77 81 97 94 100 97 100 97 97 97 100 97 97 94 94 90 94 94 90 90 90 84 84 81 77 77
0 0 0 0 0 0 3 3 3 19 26 42 55 55 61 81 84 81 84 77 74 81 84 84 81 90 81 84 94 97 97 97 97 97 97 97 90 77 84 94 90 90 84 90 84 77 71 74 81
0 0 0 0 0 0 3 3 3 19 32 48 68 74 77 84 81 81 84 77 74 84 84 84 74 77 71 81 90 90 97 97 97 97 97 90 94 90 77 87 94 87 84 87 84 81 58 55 55
0 0 0 0 0 0 3 3 3 10 23 32 58 84 81 81 81 77 77 68 74 81 84 84 77 77 68 81 84 84 90 90 94 94 90 94 87 84 87 87 94 94 84 68 77 58 45 42 55
0 0 0 0 0 0 3 6 10 16 16 35 52 81 84 81 87 87 77 68 61 77 94 84 81 87 77 74 77 84 87 90 87 97 90 77 77 81 81 87 84 87 97 94 71 90 58 65 55
0 0 0 0 0 3 3 10 10 23 23 45 74 84 87 84 84 84 81 77 77 87 94 90 87 87 90 87 81 81 84 84 84 97 90 87 71 77 74 90 94 58 74 87 84 84 74 74 65
0 0 3 0 6 3 10 10 10 26 42 68 81 84 87 87 84 81 84 87 87 100 94 87 84 87 84 87 90 77 77 94 71 84 84 87 71 74 84 94 100 61 58 55 71 71 77 61 61
0 0 3 3 6 3 10 10 10 26 55 68 84 87 84 84 84 81 77 87 87 100 94 84 81 81 77 77 84 68 74 68 71 77 84 77 77 94 87 81 97 65 68 81 77 74 61 65 48
0 0 0 0 6 6 3 10 23 26 58 65 81 84 84 87 81 77 77 77 87 90 84 84 71 71 71 77 84 71 74 61 68 71 84 87 81 90 97 77 74 87 65 65 74 58 48 45 45
0 0 0 3 0 6 3 10 26 29 55 65 77 81 84 84 84 77 77 81 87 87 87 87 87 77 68 65 74 74 81 77 71 74 84 87 84 87 94 77 87 90 61 52 39 45 45 45 58
0 0 0 0 3 3 3 13 23 29 39 58 74 77 84 87 81 84 81 84 84 90 90 90 87 77 71 71 68 77 77 74 74 74 84 84 90 90 90 81 87 65 68 71 65 71 77 61 61
0 0 0 0 3 3 0 10 26 32 45 55 68 74 81 77 74 81 81 74 81 90 94 94 87 87 68 68 65 68 68 68 68 68 81 84 90 90 94 65 90 87 71 74 48 58 52 52 48
0 0 0 3 3 3 0 10 23 35 42 52 58 65 74 77 74 84 84 81 84 90 90 90 84 84 74 61 68 61 58 61 68 71 87 87 84 87 74 90 77 87 94 84 77 77 65 45 48
0 0 0 0 0 3 0 6 23 39 48 48 61 65 68 68 71 74 81 84 84 90 90 81 84 84 77 74 58 52 52 52 58 68 77 68 77 84 84 84 74 84 68 74 81 90 77 58 48
0 0 0 0 0 0 0 0 13 26 35 48 52 68 61 71 74 71 81 81 87 87 81 87 84 84 84 77 68 58 55 48 52 61 61 61 68 65 68 74 81 81 65 77 68 55 65 77 55
0 0 0 0 0 0 0 0 0 16 26 35 48 55 55 71 74 74 77 84 84 81 84 84 84 81 81 74 77 68 52 48 52 61 55 61 55 58 58 71 74 81 71 71 68 68 71 68 58
0 0 0 0 0 0 0 0 0 3 13 26 42 42 65 68 65 77 81 81 87 77 81 77 87 77 77 74 61 65 61 61 48 55 48 58 58 61 52 68 77 71 68 74 77 74 71 71 68
0 0 0 0 0 0 0 0 0 3 6 23 39 55 71 77 74 77 87 77 87 81 74 74 74 77 71 71 68 65 68 61 58 52 42 52 58 52 65 58 77 74 74 71 84 84 74 68 74
0 0 0 0 0 0 0 0 0 3 23 39 48 61 71 81 77 84 84 87 84 74 74 81 74 74 71 68 74 71 65 65 61 61 48 42 32 42 58 55 68 65 65 45 81 65 61 68 71
0 0 0 0 0 0 0 0 0 10 19 52 58 71 74 84 84 81 81 90 90 81 84 87 90 84 71 65 65 65 58 58 55 58 61 48 48 32 35 55 61 58 58 65 68 71 71 58 58
0 0 0 0 0 0 0 0 0 6 13 45 58 68 84 90 87 87 87 94 90 84 84 84 90 87 71 58 61 45 58 58 55 55 48 42 48 45 42 45 48 58 61 65 74 61 55 61 61
0 0 0 0 0 0 0 0 0 0 13 29 52 65 74 84 94 87 94 94 97 84 74 81 87 77 71 61 52 48 52 52 48 48 42 48 48 48 55 55 52 55 52 55 61 39 45 42 55
0 0 0 0 0 0 0 0 0 0 6 26 45 61 81 87 97 90 94 97 97 87 77 77 71 71 71 61 55 55 58 48 52 45 58 55 55 58 55 61 58 58 48 48 55 61 32 32 35

GEFSSGP_con_cape1000_144.txt.gz
Probability
13 26 45 68 68 23 3 0 0 0 0 3 3 13 13 13 3 3 3 32 48 58 81 90 97 97 97 97 97 97 97 97 97 97 94 97 94 90 90 84 74 68 65 61 55 58 65 74 65
19 42 52 61 39 0 0 0 0 0 0 3 6 13 10 6 6 6 16 39 52 48 74 94 100 97 97 97 97 94 94 94 94 94 97 97 97 94 87 77 71 65 68 71 68 74 74 74 74
26 39 32 29 3 0 0 0 0 0 3 3 6 13 16 3 6 13 19 32 35 55 90 100 100 100 100 100 100 97 100 100 97 94 97 97 94 87 87 81 74 74 77 77 77 77 71 74 74
26 19 23 3 0 0 0 0 0 0 0 3 10 16 19 13 16 16 16 32 52 90 87 100 100 100 100 100 100 100 100 100 100 97 94 90 90 84 90 87 81 77 84 77 81 81 68 74 68
16 10 10 0 0 0 0 0 0 0 0 10 26 45 32 32 23 19 19 42 65 87 84 100 100 100 100 100 100 100 100 100 100 100 94 94 94 94 90 94 90 87 84 81 81 77 71 74 68
10 6 3 0 0 0 0 0 0 0 0 10 29 48 42 29 29 23 29 32 61 81 90 100 100 100 100 100 100 100 100 100 100 100 97 100 97 97 94 94 94 87 87 87 84 74 71 74 65
3 3 0 0 0 0 0 0 0 0 0 3 23 48 42 32 45 32 39 45 55 84 94 97 97 100 100 100 100 100 100 100 100 100 100 97 97 94 90 94 94 94 94 97 74 68 68 71 65
0 0 0 0 0 0 3 0 0 3 3 0 10 55 74 68 48 42 48 48 68 77 87 94 94 100 97 97 100 100 97 97 97 97 94 94 94 97 94 97 94 90 90 81 77 81 77 65 61
0 0 0 0 0 0 0 0 3 3 6 13 26 68 74 68 55 61 55 55 61 71 71 87 84 97 97 94 94 97 97 97 94 97 94 94 97 97 97 94 90 87 87 74 81 81 77 68 55
0 0 0 0 0 0 0 0 0 0 6 23 52 74 74 74 65 55 58 55 55 65 65 87 81 87 94 87 97 97 94 97 97 97 97 97 97 100 90 90 97 87 84 77 84 87 77 65 39
0 0 0 0 0 0 0 0 0 0 6 26 68 74 74 68 61 52 52 58 58 65 71 65 68 77 77 90 97 94 90 94 97 94 100 97 97 100 90 84 87 97 90 84 81 74 55 71 77
0 0 0 0 0 0 0 0 0 0 6 32 65 77 71 74 71 58 52 65 68 68 61 65 71 87 90 90 84 87 90 94 94 100 90 90 97 97 97 97 97 100 100 97 84 87 87 74 77
0 0 0 0 0 0 0 0 0 3 16 39 74 77 77 81 74 71 61 74 77 71 71 81 90 94 90 84 81 81 87 77 90 97 94 94 97 100 100 100 100 97 100 97 97 94 94 94 84
0 0 0 0 0 0 3 0 6 13 26 42 71 74 74 77 74 74 74 77 87 90 87 90 87 87 87 87 84 81 84 90 84 94 97 94 100 100 100 94 97 97 100 100 100 97 90 97 90
0 0 0 0 0 0 3 3 6 16 29 48 65 74 71 77 81 87 81 90 97 97 94 97 94 90 87 84 81 77 77 68 87 94 90 90 100 100 100 97 100 97 97 100 100 97 97 94 90
0 0 0 0 0 0 0 6 10 16 35 58 58 77 81 90 77 87 90 94 100 97 97 97 87 87 90 87 87 84 71 87 87 90 90 94 97 100 100 100 100 100 100 100 97 97 94 94 90
0 0 0 0 0 0 0 6 6 13 29 52 55 77 81 84 81 87 81 90 94 97 97 97 94 94 87 87 87 84 84 81 90 84 90 94 97 100 100 100 100 100 100 100 84 94 90 94 87
0 0 0 0 0 0 0 13 6 13 16 52 58 77 77 81 84 84 84 87 94 97 97 97 94 94 90 84 84 81 84 84 90 84 94 90 97 97 100 100 97 100 100 100 100 90 97 94 84
0 0 0 0 0 0 0 3 6 10 16 42 58 81 84 81 87 84 84 84 90 97 94 97 97 94 87 81 77 77 77 81 84 90 90 90 97 97 97 97 94 97 100 100 87 81 90 94 94
0 0 0 0 0 0 0 0 6 10 16 26 55 71 81 81 84 90 84 84 90 97 97 97 97 94 87 81 81 81 77 71 81 84 81 81 94 90 84 97 94 100 97 97 90 97 94 84 87
0 0 0 0 0 0 0 3 13 10 13 26 42 61 74 81 90 90 87 90 94 94 94 94 94 94 90 84 77 81 74 68 81 81 84 87 87 87 90 94 97 97 94 97 97 94 87 87 84
0 0 0 0 0 0 0 3 23 26 19 29 35 45 58 77 84 87 87 90 90 94 94 94 94 94 90 84 77 61 61 58 65 68 77 87 87 87 84 81 87 94 94 94 94 87 90 87 81
0 0 0 0 0 0 0 0 16 23 32 35 35 29 48 81 81 84 90 90 90 90 94 94 94 90 90 90 84 77 65 68 74 71 84 84 87 84 84 84 84 84 90 94 94 94 90 94 84
0 0 0 0 0 0 0 0 6 13 19 23 29 39 39 68 74 84 90 94 90 90 97 94 94 90 94 87 84 77 74 77 77 68 68 71 84 87 71 81 90 90 84 90 90 94 94 97 94
0 0 0 0 0 0 0 0 3 0 3 16 19 35 48 58 81 81 90 94 90 90 97 97 97 94 94 87 84 84 84 87 84 61 65 71 74 77 77 74 84 84 81 87 94 90 90 90 90
0 0 0 0 0 0 0 0 3 3 3 10 26 29 48 58 71 74 87 87 94 94 97 97 97 94 94 84 84 81 81 77 74 74 71 74 71 77 74 77 81 84 77 81 84 87 87 87 94
0 0 0 0 0 0 0 0 3 6 3 13 13 39 48 65 77 81 84 87 94 97 97 97 97 94 94 84 84 87 81 77 74 77 77 68 74 65 71 61 71 74 71 81 87 77 84 90 81
0 0 0 0 0 0 0 0 3 6 10 10 16 42 65 65 77 84 81 87 97 97 100 100 100 100 97 94 84 74 77 81 68 68 74 71 71 71 61 55 61 65 71 68 81 81 77 71 81
0 0 0 0 0 0 0 0 0 13 16 10 23 52 61 68 74 81 90 94 94 97 100 100 100 100 97 94 94 84 84 74 61 65 71 65 65 65 55 55 58 61 65 65 68 68 61 58 65
0 0 0 0 3 0 0 0 0 6 6 10 32 52 65 77 77 84 94 100 100 100 97 100 100 100 100 94 94 90 90 81 74 68 74 68 65 65 65 65 65 61 58 61 58 52 48 55 61

GEFSSGP_con_cape1000_150.txt.gz
Probability
16 10 16 32 29 3 0 0 0 0 0 0 3 3 3 0 0 10 10 39 68 84 84 97 97 97 97 97 97 97 97 97 97 97 100 100 100 100 100 100 97 90 84 81 81 77 84 81 90
0 3 13 23 0 0 0 0 3 0 0 0 3 0 13 26 32 29 45 61 71 81 84 94 97 97 97 97 97 97 97 97 97 100 100 100 100 94 97 90 90 87 84 84 84 77 77 77 74
0 13 13 16 0 0 0 0 3 0 0 0 3 6 13 26 35 32 45 61 61 87 94 97 97 97 97 97 97 97 97 97 97 100 100 100 97 94 87 90 90 84 81 77 81 87 81 77 81
6 13 10 6 0 0 0 0 0 3 3 3 6 13 13 16 32 32 48 65 71 94 97 97 97 97 97 97 97 97 97 97 97 100 100 97 97 94 87 87 84 87 84 84 74 74 84 71 77
6 6 6 0 0 0 0 6 6 6 10 10 10 10 10 19 39 32 48 68 81 94 100 100 100 97 97 97 97 100 100 100 100 100 97 97 94 90 94 90 90 87 94 87 74 74 77 74 68
0 3 0 0 0 0 3 3 6 6 10 10 13 13 6 29 39 45 58 68 84 94 100 100 100 100 100 100 100 100 100 100 100 100 97 97 97 94 94 97 90 94 100 90 81 77 71 71 68
3 0 0 0 0 0 0 0 6 6 19 16 10 10 6 16 35 52 48 65 84 94 97 97 100 100 100 100 100 100 100 100 100 100 97 97 94 94 94 97 97 94 90 87 77 74 61 74 74
0 0 0 0 0 3 3 3 3 6 16 19 10 13 3 19 32 52 52 71 77 87 94 94 90 97 100 100 100 100 100 100 100 97 97 94 94 97 97 97 94 94 87 84 71 68 61 68 77
0 0 0 0 0 0 3 3 3 6 16 23 23 19 16 23 39 52 58 71 71 74 77 77 81 81 90 97 97 97 97 97 97 94 94 90 74 65 90 87 94 94 90 84 61 61 65 65 58
0 0 0 0 0 0 0 0 0 10 26 26 29 29 23 35 39 52 61 61 65 74 71 68 71 71 74 81 90 87 90 90 84 68 74 45 32 32 65 90 94 94 94 77 81 74 65 42 16
0 0 0 0 0 0 0 0 0 10 23 26 29 29 23 32 45 55 55 55 55 58 71 68 68 68 55 65 61 65 52 52 58 58 58 29 16 29 45 39 68 58 65 42 48 52 35 16 13
0 0 0 0 0 0 0 0 3 16 23 32 32 26 29 29 29 48 52 48 48 52 55 58 55 52 52 52 52 58 52 45 48 48 52 23 13 16 19 19 19 19 13 10 16 13 16 6 3
0 0 0 0 0 0 0 6 10 26 39 45 39 32 29 23 23 32 42 52 45 42 45 52 52 48 42 39 52 65 58 52 45 45 39 26 16 16 16 26 19 16 10 3 6 10 6 10 3
0 0 0 0 0 0 0 3 13 29 39 48 45 35 29 26 29 32 35 42 42 39 35 42 35 45 42 42 39 48 55 52 35 39 35 29 13 13 13 10 13 19 13 6 6 6 0 0 3
0 0 0 0 0 0 3 3 19 26 39 48 58 52 52 32 32 39 39 39 39 42 39 39 45 39 39 39 39 48 52 42 39 39 19 23 26 19 16 10 3 6 6 6 3 3 0 0 0
0 0 0 0 0 0 3 6 19 29 35 52 55 61 55 45 39 39 45 45 45 52 55 52 55 39 39 32 29 29 32 39 39 35 23 26 23 13 3 16 13 10 10 6 3 0 0 0 0
0 0 0 0 0 0 6 3 16 29 29 48 58 58 55 55 42 48 55 45 48 55 52 48 48 45 35 35 32 29 35 32 29 32 13 19 23 35 13 10 13 6 3 3 10 0 0 0 0
0 0 0 0 0 3 3 6 16 29 45 45 55 65 55 61 52 55 58 58 61 55 55 52 52 48 35 39 35 35 32 26 26 32 35 19 23 35 10 10 13 13 6 3 3 0 0 0 0
0 0 0 0 0 3 6 13 16 29 32 45 52 65 58 61 65 61 68 71 71 68 68 61 55 52 45 42 39 39 35 26 19 23 35 29 26 26 10 23 16 10 10 3 3 0 0 0 0
0 0 0 0 0 0 10 10 16 19 29 39 58 65 68 68 74 68 74 81 84 74 68 61 55 52 45 48 39 35 32 26 16 13 23 29 29 23 35 13 13 10 10 6 3 0 0 0 0
0 0 0 0 0 0 10 13 19 19 23 29 52 61 65 71 74 71 74 81 84 84 77 77 61 48 48 52 39 32 26 19 10 10 6 13 23 26 23 13 6 10 10 6 6 3 0 0 0
0 0 0 0 0 0 3 10 13 26 26 32 55 65 58 65 71 65 68 68 84 84 84 81 61 55 45 42 35 29 26 23 19 10 6 10 16 29 16 19 10 13 13 10 10 10 3 3 0
0 0 0 0 0 0 0 3 10 13 29 39 55 55 65 65 68 68 65 68 74 84 87 90 81 61 58 48 42 29 26 26 19 13 13 13 13 16 29 23 19 13 6 6 10 10 6 3 0
0 0 0 0 0 0 0 0 6 13 16 29 42 61 61 68 65 68 74 71 77 87 87 90 81 74 68 55 48 32 26 26 26 19 19 16 10 13 23 32 10 10 10 10 10 10 10 6 6
0 0 0 0 0 0 0 0 3 10 13 23 39 48 61 65 65 71 81 84 87 87 87 90 87 74 68 61 52 42 35 26 23 19 23 19 13 16 19 19 10 10 10 10 13 10 13 10 10
0 0 0 0 0 0 0 0 0 3 10 26 32 52 65 58 65 71 81 84 87 87 87 87 84 74 65 61 52 42 32 29 23 19 23 23 16 13 13 16 10 6 13 16 10 13 13 13 6
0 0 0 0 0 0 0 0 3 10 23 32 32 45 71 68 68 68 68 74 77 87 87 84 77 71 68 61 58 52 35 35 23 23 16 13 13 13 13 13 13 10 10 6 6 6 6 3 3
0 0 0 0 0 0 0 0 3 13 19 39 35 55 65 61 65 61 68 65 71 77 84 77 74 65 65 58 55 58 39 32 23 23 16 13 13 13 13 13 13 13 10 6 3 3 3 3 3
0 0 0 0 0 0 0 0 0 6 16 35 52 55 58 65 68 61 71 71 74 84 81 84 74 61 58 58 52 45 39 35 26 23 26 19 19 19 16 16 16 10 10 6 3 3 3 3 3
0 0 0 0 0 0 0 0 0 3 13 23 45 52 61 65 61 58 61 74 74 77 77 81 74 68 58 55 45 45 39 32 32 32 29 26 23 19 16 16 10 6 6 6 3 3 6 6 6